Time,TemperatureF,DewpointF,PressureIn,WindDirection,WindDirectionDegrees,WindSpeedMPH,WindSpeedGustMPH,Humidity,HourlyPrecipIn,Conditions,Clouds,dailyrainin,SoftwareType,DateUTC
2013-02-15 00:00:00,34.7,-0.2,30.08,WSW,248,3.0,7.0,22,0.00,,,0.30,meteohub,2013-02-15 05:00:00,
2013-02-15 00:01:00,34.7,-0.2,30.07,WSW,248,3.0,6.0,22,0.00,,,0.30,meteohub,2013-02-15 05:01:00,
2013-02-15 00:05:00,34.9,1.8,30.07,WSW,248,2.0,6.0,24,0.00,,,0.00,meteohub,2013-02-15 05:05:00,
2013-02-15 00:06:00,34.9,1.8,30.08,South,180,4.0,6.0,24,0.00,,,0.00,meteohub,2013-02-15 05:06:00,
2013-02-15 00:10:00,34.9,2.7,30.07,WSW,248,9.0,9.0,25,0.00,,,0.00,meteohub,2013-02-15 05:10:00,
2013-02-15 00:11:00,35.1,2.8,30.07,WSW,248,5.0,6.0,25,0.00,,,0.00,meteohub,2013-02-15 05:11:00,
2013-02-15 00:15:00,35.2,2.8,30.07,West,270,7.0,11.0,25,0.00,,,0.00,meteohub,2013-02-15 05:15:00,
2013-02-15 00:16:00,35.2,2.8,30.07,West,270,7.0,11.0,25,0.00,,,0.00,meteohub,2013-02-15 05:16:00,
2013-02-15 00:17:00,35.2,2.8,30.07,West,270,7.0,11.0,25,0.00,,,0.00,meteohub,2013-02-15 05:17:00,
2013-02-15 00:21:00,35.2,2.8,30.08,West,270,7.0,11.0,25,0.00,,,0.00,meteohub,2013-02-15 05:21:00,
2013-02-15 00:22:00,35.8,2.5,30.08,South,180,3.0,11.0,24,0.00,,,0.00,meteohub,2013-02-15 05:22:00,
2013-02-15 00:23:00,35.8,2.5,30.08,NW,315,8.0,11.0,24,0.00,,,0.00,meteohub,2013-02-15 05:23:00,
2013-02-15 00:26:00,36.0,2.7,30.07,WSW,248,7.0,11.0,24,0.00,,,0.00,meteohub,2013-02-15 05:26:00,
2013-02-15 00:27:00,36.0,2.7,30.07,WSW,248,4.0,11.0,24,0.00,,,0.00,meteohub,2013-02-15 05:27:00,
2013-02-15 00:28:00,36.0,2.7,30.07,WSW,248,4.0,11.0,24,0.00,,,0.00,meteohub,2013-02-15 05:28:00,
2013-02-15 00:33:00,36.0,1.8,30.08,WSW,248,2.0,8.0,23,0.00,,,0.00,meteohub,2013-02-15 05:33:00,
2013-02-15 00:38:00,35.8,1.6,30.08,WSW,248,6.0,8.0,23,0.00,,,0.00,meteohub,2013-02-15 05:38:00,
2013-02-15 00:39:00,35.8,1.6,30.08,South,180,4.0,8.0,23,0.00,,,0.00,meteohub,2013-02-15 05:39:00,
2013-02-15 00:40:00,35.8,1.6,30.08,WSW,248,4.0,8.0,23,0.00,,,0.00,meteohub,2013-02-15 05:40:00,
2013-02-15 00:43:00,35.8,1.6,30.08,WSW,248,4.0,7.0,23,0.00,,,0.00,meteohub,2013-02-15 05:43:00,
2013-02-15 00:44:00,35.8,1.6,30.08,NW,315,2.0,7.0,23,0.00,,,0.00,meteohub,2013-02-15 05:44:00,
2013-02-15 00:45:00,35.8,1.6,30.08,NW,315,2.0,7.0,23,0.00,,,0.00,meteohub,2013-02-15 05:45:00,
2013-02-15 00:48:00,35.6,2.3,30.08,WSW,248,3.0,6.0,24,0.00,,,0.00,meteohub,2013-02-15 05:48:00,
2013-02-15 00:50:00,35.6,2.3,30.08,NW,315,6.0,6.0,24,0.00,,,0.00,meteohub,2013-02-15 05:50:00,
2013-02-15 00:51:00,35.6,2.3,30.08,South,180,8.0,8.0,24,0.00,,,0.00,meteohub,2013-02-15 05:51:00,
2013-02-15 00:53:00,35.8,3.4,30.09,West,270,5.0,6.0,25,0.00,,,0.00,meteohub,2013-02-15 05:53:00,
2013-02-15 00:55:00,35.8,3.4,30.08,West,270,3.0,8.0,25,0.00,,,0.00,meteohub,2013-02-15 05:55:00,
2013-02-15 00:56:00,35.8,3.4,30.09,West,270,4.0,8.0,25,0.00,,,0.00,meteohub,2013-02-15 05:56:00,
2013-02-15 00:57:00,35.8,3.4,30.09,West,270,4.0,8.0,25,0.00,,,0.00,meteohub,2013-02-15 05:57:00,
2013-02-15 00:58:00,35.8,3.4,30.08,WSW,248,8.0,8.0,25,0.00,,,0.00,meteohub,2013-02-15 05:58:00,
2013-02-15 01:00:00,36.0,3.6,30.09,West,270,12.0,12.0,25,0.00,,,0.00,meteohub,2013-02-15 06:00:00,
2013-02-15 01:02:00,36.0,3.6,30.09,West,270,12.0,12.0,25,0.00,,,0.00,meteohub,2013-02-15 06:02:00,
2013-02-15 01:04:00,36.0,3.6,30.09,West,270,12.0,12.0,25,0.00,,,0.00,meteohub,2013-02-15 06:04:00,
2013-02-15 01:06:00,36.0,3.6,30.09,West,270,12.0,12.0,25,0.00,,,0.00,meteohub,2013-02-15 06:06:00,
2013-02-15 01:07:00,36.0,3.6,30.09,West,270,12.0,12.0,25,0.00,,,0.00,meteohub,2013-02-15 06:07:00,
2013-02-15 01:10:00,36.0,3.6,30.09,WSW,248,8.0,12.0,25,0.00,,,0.00,meteohub,2013-02-15 06:10:00,
2013-02-15 01:11:00,36.1,3.7,30.09,WSW,248,8.0,12.0,25,0.00,,,0.00,meteohub,2013-02-15 06:11:00,
2013-02-15 01:12:00,36.1,3.7,30.09,WSW,248,8.0,12.0,25,0.00,,,0.00,meteohub,2013-02-15 06:12:00,
2013-02-15 01:13:00,36.1,3.7,30.09,South,180,5.0,12.0,25,0.00,,,0.00,meteohub,2013-02-15 06:13:00,
2013-02-15 01:16:00,36.1,3.7,30.09,NW,315,5.0,12.0,25,0.00,,,0.00,meteohub,2013-02-15 06:16:00,
2013-02-15 01:17:00,36.1,3.7,30.09,WSW,248,8.0,12.0,25,0.00,,,0.00,meteohub,2013-02-15 06:17:00,
2013-02-15 01:19:00,36.1,3.7,30.09,South,180,5.0,12.0,25,0.00,,,0.00,meteohub,2013-02-15 06:19:00,
2013-02-15 01:21:00,36.1,3.7,30.09,West,270,8.0,12.0,25,0.00,,,0.00,meteohub,2013-02-15 06:21:00,
2013-02-15 01:22:00,36.1,3.7,30.08,WSW,248,9.0,12.0,25,0.00,,,0.00,meteohub,2013-02-15 06:22:00,
2013-02-15 01:24:00,36.3,3.9,30.09,South,180,7.0,12.0,25,0.00,,,0.00,meteohub,2013-02-15 06:24:00,
2013-02-15 01:27:00,36.3,3.9,30.09,West,270,3.0,15.0,25,0.00,,,0.00,meteohub,2013-02-15 06:27:00,
2013-02-15 01:28:00,36.3,3.9,30.09,WSW,248,4.0,15.0,25,0.00,,,0.00,meteohub,2013-02-15 06:28:00,
2013-02-15 01:29:00,36.3,3.9,30.09,NW,315,7.0,15.0,25,0.00,,,0.00,meteohub,2013-02-15 06:29:00,
2013-02-15 01:32:00,36.3,4.6,30.09,WSW,248,4.0,15.0,26,0.00,,,0.00,meteohub,2013-02-15 06:32:00,
2013-02-15 01:33:00,36.3,4.6,30.09,South,180,5.0,15.0,26,0.00,,,0.00,meteohub,2013-02-15 06:33:00,
2013-02-15 01:34:00,36.3,4.6,30.09,WSW,248,4.0,15.0,26,0.00,,,0.00,meteohub,2013-02-15 06:34:00,
2013-02-15 01:36:00,36.3,4.6,30.09,West,270,4.0,15.0,26,0.00,,,0.00,meteohub,2013-02-15 06:36:00,
2013-02-15 01:37:00,36.3,4.6,30.08,WSW,248,5.0,15.0,26,0.00,,,0.00,meteohub,2013-02-15 06:37:00,
2013-02-15 01:39:00,36.3,4.6,30.08,WSW,248,4.0,15.0,26,0.00,,,0.00,meteohub,2013-02-15 06:39:00,
2013-02-15 01:41:00,36.3,5.5,30.08,NNW,338,11.0,11.0,27,0.00,,,0.00,meteohub,2013-02-15 06:41:00,
2013-02-15 01:43:00,36.3,5.5,30.09,West,270,3.0,7.0,27,0.00,,,0.00,meteohub,2013-02-15 06:43:00,
2013-02-15 01:45:00,36.3,5.5,30.08,NW,315,6.0,7.0,27,0.00,,,0.00,meteohub,2013-02-15 06:45:00,
2013-02-15 01:47:00,36.3,5.5,30.08,West,270,6.0,11.0,27,0.00,,,0.00,meteohub,2013-02-15 06:47:00,
2013-02-15 01:48:00,36.3,5.5,30.09,West,270,9.0,11.0,27,0.00,,,0.00,meteohub,2013-02-15 06:48:00,
2013-02-15 01:50:00,36.3,5.5,30.09,WSW,248,3.0,11.0,27,0.00,,,0.00,meteohub,2013-02-15 06:50:00,
2013-02-15 01:51:00,36.3,5.5,30.09,WSW,248,7.0,11.0,27,0.00,,,0.00,meteohub,2013-02-15 06:51:00,
2013-02-15 01:52:00,36.3,6.3,30.09,WSW,248,6.0,11.0,28,0.00,,,0.00,meteohub,2013-02-15 06:52:00,
2013-02-15 01:55:00,36.3,6.3,30.08,WSW,248,7.0,11.0,28,0.00,,,0.00,meteohub,2013-02-15 06:55:00,
2013-02-15 01:56:00,36.3,6.3,30.08,WSW,248,7.0,11.0,28,0.00,,,0.00,meteohub,2013-02-15 06:56:00,
2013-02-15 01:57:00,36.3,6.3,30.09,WSW,248,6.0,11.0,28,0.00,,,0.00,meteohub,2013-02-15 06:57:00,
2013-02-15 02:01:00,36.3,6.3,30.09,NW,315,2.0,11.0,28,0.00,,,0.00,meteohub,2013-02-15 07:01:00,
2013-02-15 02:02:00,36.3,6.3,30.09,NW,315,2.0,11.0,28,0.00,,,0.00,meteohub,2013-02-15 07:02:00,
2013-02-15 02:03:00,36.3,6.3,30.09,NW,315,2.0,11.0,28,0.00,,,0.00,meteohub,2013-02-15 07:03:00,
2013-02-15 02:06:00,36.3,6.3,30.09,NW,315,2.0,11.0,28,0.00,,,0.00,meteohub,2013-02-15 07:06:00,
2013-02-15 02:08:00,36.1,7.0,30.09,WSW,248,3.0,11.0,29,0.00,,,0.00,meteohub,2013-02-15 07:08:00,
2013-02-15 02:11:00,36.1,7.0,30.09,WSW,248,4.0,7.0,29,0.00,,,0.00,meteohub,2013-02-15 07:11:00,
2013-02-15 02:13:00,36.0,6.8,30.09,WSW,248,3.0,7.0,29,0.00,,,0.00,meteohub,2013-02-15 07:13:00,
2013-02-15 02:16:00,36.0,7.5,30.09,West,270,5.0,5.0,30,0.00,,,0.00,meteohub,2013-02-15 07:16:00,
2013-02-15 02:18:00,36.0,7.5,30.09,WSW,248,2.0,5.0,30,0.00,,,0.00,meteohub,2013-02-15 07:18:00,
2013-02-15 02:19:00,36.0,7.5,30.09,SSW,203,4.0,5.0,30,0.00,,,0.00,meteohub,2013-02-15 07:19:00,
2013-02-15 02:23:00,36.0,8.2,30.09,WSW,248,5.0,8.0,31,0.00,,,0.00,meteohub,2013-02-15 07:23:00,
2013-02-15 02:24:00,36.0,8.2,30.09,WNW,293,8.0,8.0,31,0.00,,,0.00,meteohub,2013-02-15 07:24:00,
2013-02-15 02:28:00,36.0,8.2,30.09,SE,135,5.0,8.0,31,0.00,,,0.00,meteohub,2013-02-15 07:28:00,
2013-02-15 02:29:00,36.0,8.2,30.09,WSW,248,4.0,8.0,31,0.00,,,0.00,meteohub,2013-02-15 07:29:00,
2013-02-15 02:34:00,36.0,8.2,30.09,West,270,4.0,8.0,31,0.00,,,0.00,meteohub,2013-02-15 07:34:00,
2013-02-15 02:35:00,36.0,8.2,30.09,WSW,248,9.0,9.0,31,0.00,,,0.00,meteohub,2013-02-15 07:35:00,
2013-02-15 02:40:00,35.8,8.1,30.09,WSW,248,6.0,8.0,31,0.00,,,0.00,meteohub,2013-02-15 07:40:00,
2013-02-15 02:41:00,35.8,8.1,30.09,SSW,203,5.0,9.0,31,0.00,,,0.00,meteohub,2013-02-15 07:41:00,
2013-02-15 02:45:00,35.8,8.8,30.09,WSW,248,8.0,9.0,32,0.00,,,0.00,meteohub,2013-02-15 07:45:00,
2013-02-15 02:46:00,35.8,8.8,30.09,WSW,248,8.0,9.0,32,0.00,,,0.00,meteohub,2013-02-15 07:46:00,
2013-02-15 02:47:00,35.8,8.8,30.09,WSW,248,4.0,9.0,32,0.00,,,0.00,meteohub,2013-02-15 07:47:00,
2013-02-15 02:50:00,35.8,8.8,30.09,WSW,248,6.0,9.0,32,0.00,,,0.00,meteohub,2013-02-15 07:50:00,
2013-02-15 02:51:00,35.8,8.8,30.09,WSW,248,4.0,9.0,32,0.00,,,0.00,meteohub,2013-02-15 07:51:00,
2013-02-15 02:52:00,35.8,8.8,30.09,West,270,4.0,9.0,32,0.00,,,0.00,meteohub,2013-02-15 07:52:00,
2013-02-15 02:55:00,35.6,9.3,30.09,WSW,248,11.0,11.0,33,0.00,,,0.00,meteohub,2013-02-15 07:55:00,
2013-02-15 02:56:00,35.6,9.3,30.09,West,270,9.0,9.0,33,0.00,,,0.00,meteohub,2013-02-15 07:56:00,
2013-02-15 02:57:00,35.6,9.3,30.09,WSW,248,5.0,9.0,33,0.00,,,0.00,meteohub,2013-02-15 07:57:00,
2013-02-15 02:58:00,35.6,9.3,30.09,WSW,248,5.0,9.0,33,0.00,,,0.00,meteohub,2013-02-15 07:58:00,
2013-02-15 03:01:00,35.6,9.3,30.09,South,180,7.0,11.0,33,0.00,,,0.00,meteohub,2013-02-15 08:01:00,
2013-02-15 03:03:00,35.6,9.3,30.09,South,180,7.0,11.0,33,0.00,,,0.00,meteohub,2013-02-15 08:03:00,
2013-02-15 03:04:00,35.6,9.3,30.09,South,180,7.0,11.0,33,0.00,,,0.00,meteohub,2013-02-15 08:04:00,
2013-02-15 03:07:00,35.6,9.3,30.10,South,180,7.0,11.0,33,0.00,,,0.00,meteohub,2013-02-15 08:07:00,
2013-02-15 03:08:00,35.4,9.9,30.10,WSW,248,3.0,11.0,34,0.00,,,0.00,meteohub,2013-02-15 08:08:00,
2013-02-15 03:09:00,35.4,9.9,30.10,North,0,3.0,11.0,34,0.00,,,0.00,meteohub,2013-02-15 08:09:00,
2013-02-15 03:13:00,35.4,9.9,30.09,NW,315,10.0,11.0,34,0.00,,,0.00,meteohub,2013-02-15 08:13:00,
2013-02-15 03:14:00,35.4,9.9,30.10,West,270,4.0,11.0,34,0.00,,,0.00,meteohub,2013-02-15 08:14:00,
2013-02-15 03:15:00,35.4,9.9,30.10,WSW,248,7.0,11.0,34,0.00,,,0.01,meteohub,2013-02-15 08:15:00,
2013-02-15 03:19:00,35.4,9.9,30.09,WSW,248,9.0,13.0,34,0.01,,,0.01,meteohub,2013-02-15 08:19:00,
2013-02-15 03:20:00,35.4,9.9,30.10,NW,315,9.0,13.0,34,0.01,,,0.01,meteohub,2013-02-15 08:20:00,
2013-02-15 03:24:00,35.4,9.9,30.10,West,270,6.0,13.0,34,0.01,,,0.01,meteohub,2013-02-15 08:24:00,
2013-02-15 03:25:00,35.4,9.9,30.10,West,270,6.0,13.0,34,0.01,,,0.01,meteohub,2013-02-15 08:25:00,
2013-02-15 03:26:00,35.4,9.9,30.10,West,270,7.0,13.0,34,0.01,,,0.01,meteohub,2013-02-15 08:26:00,
2013-02-15 03:30:00,35.4,9.9,30.10,West,270,7.0,13.0,34,0.01,,,0.01,meteohub,2013-02-15 08:30:00,
2013-02-15 03:31:00,35.4,9.9,30.10,WSW,248,3.0,12.0,34,0.01,,,0.01,meteohub,2013-02-15 08:31:00,
2013-02-15 03:35:00,35.2,10.4,30.10,WSW,248,4.0,12.0,35,0.01,,,0.01,meteohub,2013-02-15 08:35:00,
2013-02-15 03:37:00,35.2,10.4,30.10,West,270,11.0,12.0,35,0.01,,,0.01,meteohub,2013-02-15 08:37:00,
2013-02-15 03:41:00,35.2,10.4,30.10,WSW,248,6.0,11.0,35,0.01,,,0.01,meteohub,2013-02-15 08:41:00,
2013-02-15 03:42:00,35.2,10.4,30.10,West,270,11.0,11.0,35,0.01,,,0.01,meteohub,2013-02-15 08:42:00,
2013-02-15 03:46:00,35.2,10.4,30.10,WSW,248,3.0,11.0,35,0.01,,,0.01,meteohub,2013-02-15 08:46:00,
2013-02-15 03:47:00,35.2,10.4,30.10,West,270,2.0,11.0,35,0.01,,,0.01,meteohub,2013-02-15 08:47:00,
2013-02-15 03:48:00,35.2,10.4,30.10,West,270,7.0,11.0,35,0.01,,,0.01,meteohub,2013-02-15 08:48:00,
2013-02-15 03:52:00,35.1,10.2,30.10,West,270,5.0,11.0,35,0.01,,,0.01,meteohub,2013-02-15 08:52:00,
2013-02-15 03:53:00,35.1,10.2,30.10,WSW,248,9.0,11.0,35,0.01,,,0.01,meteohub,2013-02-15 08:53:00,
2013-02-15 03:54:00,35.1,10.2,30.10,WSW,248,9.0,11.0,35,0.01,,,0.01,meteohub,2013-02-15 08:54:00,
2013-02-15 03:57:00,35.1,10.2,30.10,WSW,248,5.0,11.0,35,0.01,,,0.01,meteohub,2013-02-15 08:57:00,
2013-02-15 03:58:00,35.1,10.2,30.10,West,270,10.0,11.0,35,0.01,,,0.01,meteohub,2013-02-15 08:58:00,
2013-02-15 03:59:00,35.1,10.2,30.10,West,270,3.0,11.0,35,0.01,,,0.01,meteohub,2013-02-15 08:59:00,
2013-02-15 04:03:00,35.1,10.2,30.10,West,270,8.0,10.0,35,0.01,,,0.01,meteohub,2013-02-15 09:03:00,
2013-02-15 04:04:00,35.1,10.2,30.10,West,270,8.0,10.0,35,0.01,,,0.01,meteohub,2013-02-15 09:04:00,
2013-02-15 04:05:00,35.1,10.2,30.10,West,270,8.0,10.0,35,0.01,,,0.01,meteohub,2013-02-15 09:05:00,
2013-02-15 04:07:00,34.9,8.1,30.11,West,270,6.0,10.0,32,0.01,,,0.01,meteohub,2013-02-15 09:07:00,
2013-02-15 04:09:00,34.9,8.1,30.11,West,270,4.0,10.0,32,0.01,,,0.01,meteohub,2013-02-15 09:09:00,
2013-02-15 04:10:00,34.9,7.3,30.10,WSW,248,6.0,10.0,31,0.00,,,0.01,meteohub,2013-02-15 09:10:00,
2013-02-15 04:13:00,34.7,7.2,30.10,North,0,4.0,10.0,31,0.00,,,0.01,meteohub,2013-02-15 09:13:00,
2013-02-15 04:14:00,34.7,7.2,30.10,North,0,4.0,10.0,31,0.00,,,0.01,meteohub,2013-02-15 09:14:00,
2013-02-15 04:16:00,34.7,6.4,30.11,West,270,6.0,10.0,30,0.00,,,0.01,meteohub,2013-02-15 09:16:00,
2013-02-15 04:19:00,34.7,5.0,30.11,West,270,3.0,10.0,28,0.00,,,0.01,meteohub,2013-02-15 09:19:00,
2013-02-15 04:21:00,34.7,4.1,30.11,WSW,248,4.0,10.0,27,0.00,,,0.01,meteohub,2013-02-15 09:21:00,
2013-02-15 04:22:00,34.7,4.1,30.11,WSW,248,4.0,10.0,27,0.00,,,0.01,meteohub,2013-02-15 09:22:00,
2013-02-15 04:25:00,34.5,3.2,30.11,NE,45,5.0,10.0,26,0.00,,,0.01,meteohub,2013-02-15 09:25:00,
2013-02-15 04:26:00,34.5,2.3,30.11,West,270,11.0,11.0,25,0.00,,,0.01,meteohub,2013-02-15 09:26:00,
2013-02-15 04:27:00,34.5,2.3,30.11,West,270,8.0,10.0,25,0.00,,,0.01,meteohub,2013-02-15 09:27:00,
2013-02-15 04:31:00,34.5,1.4,30.11,WSW,248,7.0,11.0,24,0.00,,,0.01,meteohub,2013-02-15 09:31:00,
2013-02-15 04:32:00,34.5,1.4,30.11,WSW,248,7.0,11.0,24,0.00,,,0.01,meteohub,2013-02-15 09:32:00,
2013-02-15 04:33:00,34.5,1.4,30.11,WSW,248,7.0,11.0,24,0.00,,,0.01,meteohub,2013-02-15 09:33:00,
2013-02-15 04:37:00,34.3,2.1,30.11,WSW,248,8.0,11.0,25,0.00,,,0.01,meteohub,2013-02-15 09:37:00,
2013-02-15 04:38:00,34.3,2.1,30.11,NW,315,3.0,11.0,25,0.00,,,0.01,meteohub,2013-02-15 09:38:00,
2013-02-15 04:42:00,34.3,2.1,30.12,NW,315,2.0,11.0,25,0.00,,,0.01,meteohub,2013-02-15 09:42:00,
2013-02-15 04:43:00,34.2,1.9,30.11,West,270,6.0,11.0,25,0.00,,,0.01,meteohub,2013-02-15 09:43:00,
2013-02-15 04:44:00,34.2,1.9,30.11,NW,315,7.0,11.0,25,0.00,,,0.01,meteohub,2013-02-15 09:44:00,
2013-02-15 04:47:00,33.8,0.9,30.12,NW,315,5.0,8.0,24,0.00,,,0.01,meteohub,2013-02-15 09:47:00,
2013-02-15 04:48:00,33.8,0.0,30.12,NW,315,6.0,8.0,23,0.00,,,0.01,meteohub,2013-02-15 09:48:00,
2013-02-15 04:49:00,33.6,-2.2,30.12,NW,315,4.0,8.0,21,0.00,,,0.01,meteohub,2013-02-15 09:49:00,
2013-02-15 04:50:00,33.6,-2.2,30.12,North,0,3.0,8.0,21,0.00,,,0.01,meteohub,2013-02-15 09:50:00,
2013-02-15 04:52:00,33.4,-4.4,30.12,North,0,6.0,8.0,19,0.00,,,0.01,meteohub,2013-02-15 09:52:00,
2013-02-15 04:54:00,33.3,-5.6,30.12,WSW,248,5.0,8.0,18,0.00,,,0.01,meteohub,2013-02-15 09:54:00,
2013-02-15 04:55:00,33.3,-5.6,30.12,West,270,3.0,8.0,18,0.00,,,0.01,meteohub,2013-02-15 09:55:00,
2013-02-15 04:57:00,33.1,-8.3,30.12,NW,315,4.0,8.0,16,0.00,,,0.01,meteohub,2013-02-15 09:57:00,
2013-02-15 04:59:00,33.1,-8.3,30.12,NW,315,3.0,8.0,16,0.00,,,0.01,meteohub,2013-02-15 09:59:00,
2013-02-15 05:00:00,33.1,-8.3,30.12,West,270,6.0,8.0,16,0.00,,,0.01,meteohub,2013-02-15 10:00:00,
2013-02-15 05:03:00,33.1,-8.3,30.12,West,270,6.0,8.0,16,0.00,,,0.01,meteohub,2013-02-15 10:03:00,
2013-02-15 05:04:00,33.1,-8.3,30.13,West,270,6.0,8.0,16,0.00,,,0.01,meteohub,2013-02-15 10:04:00,
2013-02-15 05:05:00,33.1,-8.3,30.12,West,270,6.0,8.0,16,0.00,,,0.01,meteohub,2013-02-15 10:05:00,
2013-02-15 05:09:00,32.7,-11.2,30.12,NE,45,4.0,8.0,14,0.00,,,0.01,meteohub,2013-02-15 10:09:00,
2013-02-15 05:10:00,32.7,-9.9,30.12,West,270,2.0,8.0,15,0.00,,,0.01,meteohub,2013-02-15 10:10:00,
2013-02-15 05:11:00,32.7,-9.9,30.12,West,270,6.0,8.0,15,0.00,,,0.01,meteohub,2013-02-15 10:11:00,
2013-02-15 05:14:00,32.7,-11.2,30.12,NW,315,2.0,8.0,14,0.00,,,0.01,meteohub,2013-02-15 10:14:00,
2013-02-15 05:16:00,32.5,-11.4,30.12,NW,315,4.0,6.0,14,0.00,,,0.01,meteohub,2013-02-15 10:16:00,
2013-02-15 05:17:00,32.5,-11.4,30.12,NW,315,2.0,6.0,14,0.00,,,0.01,meteohub,2013-02-15 10:17:00,
2013-02-15 05:19:00,32.5,-11.4,30.12,NW,315,4.0,6.0,14,0.00,,,0.01,meteohub,2013-02-15 10:19:00,
2013-02-15 05:22:00,32.5,-9.9,30.12,NW,315,2.0,6.0,15,0.00,,,0.01,meteohub,2013-02-15 10:22:00,
2013-02-15 05:25:00,32.5,-9.9,30.12,North,0,2.0,6.0,15,0.00,,,0.01,meteohub,2013-02-15 10:25:00,
2013-02-15 05:27:00,32.4,-10.1,30.12,West,270,2.0,6.0,15,0.00,,,0.01,meteohub,2013-02-15 10:27:00,
2013-02-15 05:28:00,32.4,-10.1,30.12,West,270,2.0,6.0,15,0.00,,,0.01,meteohub,2013-02-15 10:28:00,
2013-02-15 05:29:00,32.4,-10.1,30.12,West,270,3.0,6.0,15,0.00,,,0.01,meteohub,2013-02-15 10:29:00,
2013-02-15 05:31:00,32.4,-10.1,30.12,West,270,2.0,5.0,15,0.00,,,0.01,meteohub,2013-02-15 10:31:00,
2013-02-15 05:33:00,32.4,-10.1,30.12,NW,315,1.0,5.0,15,0.00,,,0.01,meteohub,2013-02-15 10:33:00,
2013-02-15 05:35:00,32.4,-8.9,30.12,WSW,248,1.0,5.0,16,0.00,,,0.01,meteohub,2013-02-15 10:35:00,
2013-02-15 05:36:00,32.4,-7.6,30.12,West,270,2.0,5.0,17,0.00,,,0.01,meteohub,2013-02-15 10:36:00,
2013-02-15 05:38:00,32.4,-7.6,30.12,NNW,338,4.0,5.0,17,0.00,,,0.01,meteohub,2013-02-15 10:38:00,
2013-02-15 05:39:00,32.4,-7.6,30.13,WSW,248,6.0,6.0,17,0.00,,,0.01,meteohub,2013-02-15 10:39:00,
2013-02-15 05:40:00,32.4,-7.6,30.13,WSW,248,4.0,5.0,17,0.00,,,0.01,meteohub,2013-02-15 10:40:00,
2013-02-15 05:41:00,32.4,-7.6,30.13,NW,315,2.0,6.0,17,0.00,,,0.01,meteohub,2013-02-15 10:41:00,
2013-02-15 05:43:00,32.4,-7.6,30.13,NW,315,4.0,6.0,17,0.00,,,0.01,meteohub,2013-02-15 10:43:00,
2013-02-15 05:44:00,32.4,-7.6,30.12,WSW,248,3.0,6.0,17,0.00,,,0.01,meteohub,2013-02-15 10:44:00,
2013-02-15 05:46:00,32.4,-7.6,30.12,WSW,248,2.0,6.0,17,0.00,,,0.01,meteohub,2013-02-15 10:46:00,
2013-02-15 05:47:00,32.4,-6.5,30.13,WSW,248,2.0,6.0,18,0.00,,,0.01,meteohub,2013-02-15 10:47:00,
2013-02-15 05:49:00,32.4,-7.6,30.13,West,270,4.0,6.0,17,0.00,,,0.01,meteohub,2013-02-15 10:49:00,
2013-02-15 05:51:00,32.4,-7.6,30.13,WSW,248,3.0,6.0,17,0.00,,,0.01,meteohub,2013-02-15 10:51:00,
2013-02-15 05:52:00,32.4,-7.6,30.13,WSW,248,3.0,6.0,17,0.00,,,0.01,meteohub,2013-02-15 10:52:00,
2013-02-15 05:55:00,32.4,-7.6,30.13,West,270,3.0,5.0,17,0.00,,,0.01,meteohub,2013-02-15 10:55:00,
2013-02-15 05:56:00,32.2,-7.8,30.13,West,270,9.0,9.0,17,0.00,,,0.01,meteohub,2013-02-15 10:56:00,
2013-02-15 05:57:00,32.2,-7.8,30.14,West,270,4.0,5.0,17,0.00,,,0.01,meteohub,2013-02-15 10:57:00,
2013-02-15 05:58:00,32.2,-7.8,30.14,West,270,8.0,8.0,17,0.00,,,0.01,meteohub,2013-02-15 10:58:00,
2013-02-15 06:00:00,32.2,-7.8,30.14,WSW,248,7.0,9.0,17,0.00,,,0.01,meteohub,2013-02-15 11:00:00,
2013-02-15 06:02:00,32.2,-7.8,30.14,WSW,248,7.0,9.0,17,0.00,,,0.01,meteohub,2013-02-15 11:02:00,
2013-02-15 06:03:00,32.2,-7.8,30.14,WSW,248,7.0,9.0,17,0.00,,,0.01,meteohub,2013-02-15 11:03:00,
2013-02-15 06:04:00,32.2,-7.8,30.14,WSW,248,7.0,9.0,17,0.00,,,0.01,meteohub,2013-02-15 11:04:00,
2013-02-15 06:05:00,32.2,-7.8,30.14,WSW,248,7.0,9.0,17,0.00,,,0.01,meteohub,2013-02-15 11:05:00,
2013-02-15 06:09:00,32.0,-9.2,30.14,WSW,248,5.0,9.0,16,0.00,,,0.01,meteohub,2013-02-15 11:09:00,
2013-02-15 06:11:00,32.0,-9.2,30.14,West,270,8.0,9.0,16,0.00,,,0.01,meteohub,2013-02-15 11:11:00,
2013-02-15 06:14:00,32.0,-10.5,30.14,West,270,5.0,9.0,15,0.00,,,0.01,meteohub,2013-02-15 11:14:00,
2013-02-15 06:15:00,32.0,-9.2,30.14,WSW,248,3.0,9.0,16,0.00,,,0.01,meteohub,2013-02-15 11:15:00,
2013-02-15 06:16:00,31.8,-9.2,30.14,North,0,7.0,10.0,16,0.00,,,0.01,meteohub,2013-02-15 11:16:00,
2013-02-15 06:20:00,31.8,-10.7,30.15,West,270,4.0,10.0,15,0.00,,,0.01,meteohub,2013-02-15 11:20:00,
2013-02-15 06:22:00,31.8,-9.2,30.15,WNW,293,8.0,10.0,16,0.00,,,0.01,meteohub,2013-02-15 11:22:00,
2013-02-15 06:25:00,31.6,-9.4,30.15,WSW,248,5.0,10.0,16,0.00,,,0.01,meteohub,2013-02-15 11:25:00,
2013-02-15 06:26:00,31.6,-9.4,30.15,WSW,248,5.0,10.0,16,0.00,,,0.01,meteohub,2013-02-15 11:26:00,
2013-02-15 06:27:00,31.6,-9.4,30.15,West,270,4.0,10.0,16,0.00,,,0.01,meteohub,2013-02-15 11:27:00,
2013-02-15 06:31:00,31.6,-10.7,30.15,WSW,248,4.0,8.0,15,0.00,,,0.01,meteohub,2013-02-15 11:31:00,
2013-02-15 06:32:00,31.5,-10.8,30.15,WSW,248,2.0,8.0,15,0.00,,,0.01,meteohub,2013-02-15 11:32:00,
2013-02-15 06:33:00,31.5,-10.8,30.15,West,270,2.0,8.0,15,0.00,,,0.01,meteohub,2013-02-15 11:33:00,
2013-02-15 06:36:00,31.5,-9.6,30.15,WSW,248,4.0,8.0,16,0.00,,,0.01,meteohub,2013-02-15 11:36:00,
2013-02-15 06:37:00,31.3,-9.8,30.15,WSW,248,5.0,8.0,16,0.00,,,0.01,meteohub,2013-02-15 11:37:00,
2013-02-15 06:38:00,31.3,-9.8,30.16,NW,315,4.0,8.0,16,0.00,,,0.01,meteohub,2013-02-15 11:38:00,
2013-02-15 06:42:00,31.3,-8.5,30.15,WSW,248,2.0,8.0,17,0.00,,,0.01,meteohub,2013-02-15 11:42:00,
2013-02-15 06:43:00,31.3,-8.5,30.15,West,270,4.0,8.0,17,0.00,,,0.01,meteohub,2013-02-15 11:43:00,
2013-02-15 06:44:00,31.3,-8.5,30.15,WSW,248,7.0,8.0,17,0.00,,,0.01,meteohub,2013-02-15 11:44:00,
2013-02-15 06:47:00,31.3,-9.8,30.16,NW,315,7.0,7.0,16,0.00,,,0.01,meteohub,2013-02-15 11:47:00,
2013-02-15 06:48:00,31.3,-9.8,30.16,NW,315,3.0,7.0,16,0.00,,,0.01,meteohub,2013-02-15 11:48:00,
2013-02-15 06:49:00,31.3,-9.8,30.15,WSW,248,4.0,7.0,16,0.00,,,0.01,meteohub,2013-02-15 11:49:00,
2013-02-15 06:52:00,31.3,-9.8,30.15,West,270,4.0,7.0,16,0.00,,,0.01,meteohub,2013-02-15 11:52:00,
2013-02-15 06:54:00,31.3,-11.0,30.15,West,270,8.0,8.0,15,0.00,,,0.01,meteohub,2013-02-15 11:54:00,
2013-02-15 06:57:00,31.3,-11.0,30.16,West,270,7.0,8.0,15,0.00,,,0.01,meteohub,2013-02-15 11:57:00,
2013-02-15 06:58:00,31.3,-12.5,30.16,WSW,248,4.0,8.0,14,0.00,,,0.01,meteohub,2013-02-15 11:58:00,
2013-02-15 06:59:00,31.3,-12.5,30.15,West,270,7.0,8.0,14,0.00,,,0.01,meteohub,2013-02-15 11:59:00,
2013-02-15 07:00:00,31.3,-12.5,30.15,West,270,7.0,8.0,14,0.00,,,0.01,meteohub,2013-02-15 12:00:00,
2013-02-15 07:03:00,31.3,-12.5,30.15,West,270,7.0,8.0,14,0.00,,,0.01,meteohub,2013-02-15 12:03:00,
2013-02-15 07:05:00,31.3,-12.5,30.15,West,270,7.0,8.0,14,0.00,,,0.01,meteohub,2013-02-15 12:05:00,
2013-02-15 07:06:00,31.3,-12.5,30.15,West,270,7.0,8.0,14,0.00,,,0.01,meteohub,2013-02-15 12:06:00,
2013-02-15 07:08:00,31.3,-13.9,30.15,West,270,8.0,8.0,13,0.00,,,0.01,meteohub,2013-02-15 12:08:00,
2013-02-15 07:10:00,31.3,-15.5,30.15,West,270,2.0,8.0,12,0.00,,,0.01,meteohub,2013-02-15 12:10:00,
2013-02-15 07:11:00,31.3,-15.5,30.15,NW,315,5.0,8.0,12,0.00,,,0.01,meteohub,2013-02-15 12:11:00,
2013-02-15 07:13:00,31.3,-13.9,30.16,West,270,5.0,8.0,13,0.00,,,0.01,meteohub,2013-02-15 12:13:00,
2013-02-15 07:14:00,31.3,-13.9,30.15,West,270,4.0,8.0,13,0.00,,,0.01,meteohub,2013-02-15 12:14:00,
2013-02-15 07:15:00,31.3,-13.9,30.15,West,270,4.0,8.0,13,0.00,,,0.01,meteohub,2013-02-15 12:15:00,
2013-02-15 07:17:00,31.1,-14.1,30.16,West,270,5.0,8.0,13,0.00,,,0.01,meteohub,2013-02-15 12:17:00,
2013-02-15 07:18:00,31.1,-14.1,30.16,WSW,248,5.0,8.0,13,0.00,,,0.01,meteohub,2013-02-15 12:18:00,
2013-02-15 07:20:00,31.1,-14.1,30.16,SE,135,6.0,8.0,13,0.00,,,0.01,meteohub,2013-02-15 12:20:00,
2013-02-15 07:21:00,31.1,-14.1,30.16,SE,135,6.0,8.0,13,0.00,,,0.01,meteohub,2013-02-15 12:21:00,
2013-02-15 07:22:00,31.1,-14.1,30.16,South,180,4.0,8.0,13,0.00,,,0.01,meteohub,2013-02-15 12:22:00,
2013-02-15 07:23:00,31.1,-14.1,30.16,WSW,248,10.0,10.0,13,0.00,,,0.01,meteohub,2013-02-15 12:23:00,
2013-02-15 07:25:00,31.1,-14.1,30.16,West,270,8.0,10.0,13,0.00,,,0.01,meteohub,2013-02-15 12:25:00,
2013-02-15 07:26:00,31.1,-15.7,30.16,WSW,248,3.0,10.0,12,0.00,,,0.01,meteohub,2013-02-15 12:26:00,
2013-02-15 07:28:00,31.1,-14.1,30.17,West,270,4.0,10.0,13,0.00,,,0.01,meteohub,2013-02-15 12:28:00,
2013-02-15 07:32:00,31.1,-15.7,30.16,West,270,4.0,10.0,12,0.00,,,0.01,meteohub,2013-02-15 12:32:00,
2013-02-15 07:33:00,31.1,-15.7,30.17,WSW,248,4.0,10.0,12,0.00,,,0.01,meteohub,2013-02-15 12:33:00,
2013-02-15 07:35:00,31.1,-15.7,30.17,WSW,248,4.0,10.0,12,0.00,,,0.01,meteohub,2013-02-15 12:35:00,
2013-02-15 07:37:00,31.3,-15.5,30.17,West,270,2.0,10.0,12,0.00,,,0.01,meteohub,2013-02-15 12:37:00,
2013-02-15 07:39:00,31.3,-15.5,30.17,West,270,6.0,10.0,12,0.00,,,0.01,meteohub,2013-02-15 12:39:00,
2013-02-15 07:40:00,31.3,-15.5,30.17,WSW,248,4.0,10.0,12,0.00,,,0.01,meteohub,2013-02-15 12:40:00,
2013-02-15 07:42:00,31.3,-17.1,30.17,West,270,2.0,10.0,11,0.00,,,0.01,meteohub,2013-02-15 12:42:00,
2013-02-15 07:44:00,31.3,-15.5,30.17,WSW,248,2.0,10.0,12,0.00,,,0.01,meteohub,2013-02-15 12:44:00,
2013-02-15 07:45:00,31.3,-15.5,30.17,WSW,248,2.0,10.0,12,0.00,,,0.01,meteohub,2013-02-15 12:45:00,
2013-02-15 07:46:00,31.3,-15.5,30.17,WSW,248,4.0,10.0,12,0.00,,,0.01,meteohub,2013-02-15 12:46:00,
2013-02-15 07:47:00,31.3,-15.5,30.17,West,270,7.0,10.0,12,0.00,,,0.01,meteohub,2013-02-15 12:47:00,
2013-02-15 07:49:00,31.3,-17.1,30.17,WSW,248,4.0,10.0,11,0.00,,,0.01,meteohub,2013-02-15 12:49:00,
2013-02-15 07:50:00,31.3,-17.1,30.17,West,270,4.0,10.0,11,0.00,,,0.01,meteohub,2013-02-15 12:50:00,
2013-02-15 07:51:00,31.3,-17.1,30.17,West,270,5.0,10.0,11,0.00,,,0.01,meteohub,2013-02-15 12:51:00,
2013-02-15 07:53:00,31.3,-17.1,30.18,WSW,248,4.0,10.0,11,0.00,,,0.01,meteohub,2013-02-15 12:53:00,
2013-02-15 07:55:00,31.3,-15.5,30.17,WSW,248,4.0,10.0,12,0.00,,,0.01,meteohub,2013-02-15 12:55:00,
2013-02-15 07:56:00,31.3,-15.5,30.17,WSW,248,4.0,10.0,12,0.00,,,0.01,meteohub,2013-02-15 12:56:00,
2013-02-15 07:59:00,31.5,-15.3,30.17,WSW,248,4.0,10.0,12,0.00,,,0.01,meteohub,2013-02-15 12:59:00,
2013-02-15 08:01:00,31.5,-15.3,30.18,West,270,6.0,10.0,12,0.00,,,0.01,meteohub,2013-02-15 13:01:00,
2013-02-15 08:04:00,31.5,-15.3,30.17,West,270,2.0,10.0,12,0.00,,,0.01,meteohub,2013-02-15 13:04:00,
2013-02-15 08:06:00,31.6,-15.2,30.18,WSW,248,3.0,6.0,12,0.00,,,0.01,meteohub,2013-02-15 13:06:00,
2013-02-15 08:10:00,31.8,-16.8,30.18,WSW,248,4.0,6.0,11,0.00,,,0.01,meteohub,2013-02-15 13:10:00,
2013-02-15 08:12:00,32.0,-16.6,30.18,WSW,248,4.0,6.0,11,0.00,,,0.01,meteohub,2013-02-15 13:12:00,
2013-02-15 08:16:00,32.0,-18.4,30.18,West,270,4.0,9.0,10,0.00,,,0.01,meteohub,2013-02-15 13:16:00,
2013-02-15 08:17:00,32.0,-18.4,30.18,West,270,4.0,9.0,10,0.00,,,0.01,meteohub,2013-02-15 13:17:00,
2013-02-15 08:22:00,32.4,32.4,30.18,West,270,2.0,10.0,0,0.00,,,0.01,meteohub,2013-02-15 13:22:00,
2013-02-15 08:23:00,32.4,32.4,30.18,WSW,248,3.0,10.0,0,0.00,,,0.01,meteohub,2013-02-15 13:23:00,
2013-02-15 08:24:00,32.4,32.4,30.18,WSW,248,10.0,10.0,0,0.00,,,0.01,meteohub,2013-02-15 13:24:00,
2013-02-15 08:27:00,32.5,32.5,30.18,WSW,248,5.0,10.0,0,0.00,,,0.01,meteohub,2013-02-15 13:27:00,
2013-02-15 08:28:00,32.5,32.5,30.18,WSW,248,4.0,10.0,0,0.00,,,0.01,meteohub,2013-02-15 13:28:00,
2013-02-15 08:29:00,32.5,32.5,30.18,WSW,248,3.0,10.0,0,0.00,,,0.01,meteohub,2013-02-15 13:29:00,
2013-02-15 08:30:00,32.5,32.5,30.18,WSW,248,3.0,10.0,0,0.00,,,0.01,meteohub,2013-02-15 13:30:00,
2013-02-15 08:33:00,32.4,32.4,30.18,NW,315,4.0,10.0,0,0.00,,,0.01,meteohub,2013-02-15 13:33:00,
2013-02-15 08:34:00,32.4,32.4,30.18,West,270,7.0,10.0,0,0.00,,,0.01,meteohub,2013-02-15 13:34:00,
2013-02-15 08:36:00,32.4,32.4,30.18,West,270,8.0,10.0,0,0.00,,,0.01,meteohub,2013-02-15 13:36:00,
2013-02-15 08:40:00,32.4,32.4,30.18,West,270,2.0,10.0,0,0.00,,,0.01,meteohub,2013-02-15 13:40:00,
2013-02-15 08:41:00,32.4,32.4,30.18,NW,315,2.0,8.0,0,0.00,,,0.01,meteohub,2013-02-15 13:41:00,
2013-02-15 08:42:00,32.4,32.4,30.18,East,90,4.0,8.0,0,0.00,,,0.01,meteohub,2013-02-15 13:42:00,
2013-02-15 08:45:00,32.4,32.4,30.18,West,270,4.0,8.0,0,0.00,,,0.01,meteohub,2013-02-15 13:45:00,
2013-02-15 08:46:00,32.2,32.2,30.18,South,180,2.0,8.0,0,0.00,,,0.01,meteohub,2013-02-15 13:46:00,
2013-02-15 08:47:00,32.4,32.4,30.18,WSW,248,4.0,8.0,0,0.00,,,0.01,meteohub,2013-02-15 13:47:00,
2013-02-15 08:51:00,32.4,32.4,30.19,West,270,4.0,8.0,0,0.00,,,0.01,meteohub,2013-02-15 13:51:00,
2013-02-15 08:52:00,32.4,32.4,30.19,WSW,248,8.0,8.0,0,0.00,,,0.01,meteohub,2013-02-15 13:52:00,
2013-02-15 08:53:00,32.4,32.4,30.19,South,180,4.0,8.0,0,0.00,,,0.01,meteohub,2013-02-15 13:53:00,
2013-02-15 08:56:00,32.4,32.4,30.18,WSW,248,3.0,8.0,0,0.00,,,0.01,meteohub,2013-02-15 13:56:00,
2013-02-15 08:57:00,32.4,32.4,30.18,WSW,248,3.0,8.0,0,0.00,,,0.01,meteohub,2013-02-15 13:57:00,
2013-02-15 08:58:00,32.4,32.4,30.19,WSW,248,2.0,8.0,0,0.00,,,0.01,meteohub,2013-02-15 13:58:00,
2013-02-15 09:02:00,32.5,32.5,30.18,West,270,4.0,8.0,0,0.00,,,0.01,meteohub,2013-02-15 14:02:00,
2013-02-15 09:03:00,32.5,32.5,30.19,West,270,4.0,8.0,0,0.00,,,0.01,meteohub,2013-02-15 14:03:00,
2013-02-15 09:04:00,32.5,32.5,30.19,West,270,4.0,8.0,0,0.00,,,0.01,meteohub,2013-02-15 14:04:00,
2013-02-15 09:07:00,33.4,33.4,30.18,WSW,248,4.0,8.0,0,0.00,,,0.01,meteohub,2013-02-15 14:07:00,
2013-02-15 09:08:00,33.4,33.4,30.18,WSW,248,4.0,8.0,0,0.00,,,0.01,meteohub,2013-02-15 14:08:00,
2013-02-15 09:09:00,33.6,33.6,30.19,WSW,248,7.0,8.0,0,0.00,,,0.01,meteohub,2013-02-15 14:09:00,
2013-02-15 09:12:00,33.8,33.8,30.18,WSW,248,7.0,7.0,0,0.00,,,0.01,meteohub,2013-02-15 14:12:00,
2013-02-15 09:13:00,34.0,34.0,30.18,West,270,6.0,7.0,0,0.00,,,0.01,meteohub,2013-02-15 14:13:00,
2013-02-15 09:14:00,34.0,34.0,30.18,West,270,4.0,7.0,0,0.00,,,0.01,meteohub,2013-02-15 14:14:00,
2013-02-15 09:18:00,34.2,34.2,30.18,West,270,2.0,10.0,0,0.00,,,0.01,meteohub,2013-02-15 14:18:00,
2013-02-15 09:19:00,34.3,34.3,30.18,West,270,3.0,10.0,0,0.00,,,0.01,meteohub,2013-02-15 14:19:00,
2013-02-15 09:20:00,34.3,34.3,30.18,WSW,248,9.0,10.0,0,0.00,,,0.01,meteohub,2013-02-15 14:20:00,
2013-02-15 09:24:00,34.0,34.0,30.18,West,270,7.0,10.0,0,0.00,,,0.01,meteohub,2013-02-15 14:24:00,
2013-02-15 09:25:00,33.8,33.8,30.18,NW,315,5.0,12.0,0,0.00,,,0.01,meteohub,2013-02-15 14:25:00,
2013-02-15 09:27:00,34.0,34.0,30.18,West,270,3.0,12.0,0,0.00,,,0.01,meteohub,2013-02-15 14:27:00,
2013-02-15 09:29:00,34.3,34.3,30.18,NW,315,5.0,12.0,0,0.00,,,0.01,meteohub,2013-02-15 14:29:00,
2013-02-15 09:30:00,34.5,34.5,30.18,West,270,6.0,12.0,0,0.00,,,0.01,meteohub,2013-02-15 14:30:00,
2013-02-15 09:31:00,34.7,34.7,30.18,NW,315,11.0,12.0,0,0.00,,,0.01,meteohub,2013-02-15 14:31:00,
2013-02-15 09:32:00,34.7,34.7,30.18,NW,315,9.0,12.0,0,0.00,,,0.01,meteohub,2013-02-15 14:32:00,
2013-02-15 09:35:00,34.9,34.9,30.18,West,270,11.0,12.0,0,0.00,,,0.01,meteohub,2013-02-15 14:35:00,
2013-02-15 09:36:00,34.9,34.9,30.18,South,180,4.0,12.0,0,0.00,,,0.01,meteohub,2013-02-15 14:36:00,
2013-02-15 09:38:00,35.1,35.1,30.18,NW,315,6.0,12.0,0,0.00,,,0.01,meteohub,2013-02-15 14:38:00,
2013-02-15 09:40:00,35.1,35.1,30.18,West,270,4.0,11.0,0,0.00,,,0.01,meteohub,2013-02-15 14:40:00,
2013-02-15 09:42:00,35.1,35.1,30.18,WSW,248,4.0,11.0,0,0.00,,,0.01,meteohub,2013-02-15 14:42:00,
2013-02-15 09:43:00,35.1,35.1,30.18,West,270,9.0,11.0,0,0.00,,,0.01,meteohub,2013-02-15 14:43:00,
2013-02-15 09:45:00,35.1,35.1,30.18,West,270,12.0,12.0,0,0.00,,,0.01,meteohub,2013-02-15 14:45:00,
2013-02-15 09:47:00,34.9,34.9,30.18,NW,315,11.0,11.0,0,0.00,,,0.01,meteohub,2013-02-15 14:47:00,
2013-02-15 09:48:00,34.9,34.9,30.19,WSW,248,5.0,11.0,0,0.00,,,0.01,meteohub,2013-02-15 14:48:00,
2013-02-15 09:49:00,34.7,34.7,30.18,WSW,248,11.0,11.0,0,0.00,,,0.01,meteohub,2013-02-15 14:49:00,
2013-02-15 09:51:00,34.7,34.7,30.18,North,0,8.0,13.0,0,0.00,,,0.01,meteohub,2013-02-15 14:51:00,
2013-02-15 09:53:00,34.7,34.7,30.18,WSW,248,5.0,13.0,0,0.00,,,0.01,meteohub,2013-02-15 14:53:00,
2013-02-15 09:54:00,34.7,34.7,30.18,WSW,248,5.0,13.0,0,0.00,,,0.01,meteohub,2013-02-15 14:54:00,
2013-02-15 09:55:00,34.9,34.9,30.18,West,270,5.0,13.0,0,0.00,,,0.01,meteohub,2013-02-15 14:55:00,
2013-02-15 09:58:00,35.2,35.2,30.18,West,270,6.0,13.0,0,0.00,,,0.01,meteohub,2013-02-15 14:58:00,
2013-02-15 09:59:00,35.4,35.4,30.18,SE,135,8.0,13.0,0,0.00,,,0.01,meteohub,2013-02-15 14:59:00,
2013-02-15 10:00:00,35.4,35.4,30.18,SE,135,8.0,12.0,0,0.00,,,0.01,meteohub,2013-02-15 15:00:00,
2013-02-15 10:03:00,36.0,36.0,30.19,NW,315,10.0,12.0,0,0.00,,,0.01,meteohub,2013-02-15 15:03:00,
2013-02-15 10:05:00,35.8,35.8,30.18,West,270,7.0,12.0,0,0.00,,,0.01,meteohub,2013-02-15 15:05:00,
2013-02-15 10:09:00,36.3,36.3,30.18,WSW,248,5.0,10.0,0,0.00,,,0.01,meteohub,2013-02-15 15:09:00,
2013-02-15 10:10:00,36.3,36.3,30.18,WSW,248,5.0,10.0,0,0.00,,,0.01,meteohub,2013-02-15 15:10:00,
2013-02-15 10:15:00,36.1,36.1,30.17,NE,45,9.0,11.0,0,0.00,,,0.01,meteohub,2013-02-15 15:15:00,
2013-02-15 10:16:00,36.1,36.1,30.18,NE,45,9.0,11.0,0,0.00,,,0.01,meteohub,2013-02-15 15:16:00,
2013-02-15 10:17:00,36.0,36.0,30.18,West,270,10.0,11.0,0,0.00,,,0.01,meteohub,2013-02-15 15:17:00,
2013-02-15 10:20:00,36.0,36.0,30.18,WSW,248,7.0,11.0,0,0.00,,,0.01,meteohub,2013-02-15 15:20:00,
2013-02-15 10:21:00,36.0,36.0,30.18,WSW,248,7.0,11.0,0,0.00,,,0.01,meteohub,2013-02-15 15:21:00,
2013-02-15 10:22:00,35.8,35.8,30.18,South,180,5.0,11.0,0,0.00,,,0.01,meteohub,2013-02-15 15:22:00,
2013-02-15 10:26:00,35.6,35.6,30.18,WSW,248,8.0,11.0,0,0.00,,,0.01,meteohub,2013-02-15 15:26:00,
2013-02-15 10:27:00,35.6,35.6,30.18,NW,315,4.0,11.0,0,0.00,,,0.01,meteohub,2013-02-15 15:27:00,
2013-02-15 10:31:00,35.8,35.8,30.18,West,270,9.0,10.0,0,0.00,,,0.01,meteohub,2013-02-15 15:31:00,
2013-02-15 10:32:00,35.8,35.8,30.18,West,270,9.0,10.0,0,0.00,,,0.01,meteohub,2013-02-15 15:32:00,
2013-02-15 10:33:00,35.8,35.8,30.17,WSW,248,9.0,10.0,0,0.00,,,0.01,meteohub,2013-02-15 15:33:00,
2013-02-15 10:37:00,35.6,35.6,30.18,WSW,248,6.0,10.0,0,0.00,,,0.01,meteohub,2013-02-15 15:37:00,
2013-02-15 10:38:00,35.4,35.4,30.18,WSW,248,7.0,10.0,0,0.00,,,0.01,meteohub,2013-02-15 15:38:00,
2013-02-15 10:42:00,35.6,35.6,30.17,NW,315,4.0,11.0,0,0.00,,,0.01,meteohub,2013-02-15 15:42:00,
2013-02-15 10:43:00,35.8,35.8,30.18,WSW,248,8.0,11.0,0,0.00,,,0.01,meteohub,2013-02-15 15:43:00,
2013-02-15 10:44:00,36.0,36.0,30.18,South,180,7.0,11.0,0,0.00,,,0.01,meteohub,2013-02-15 15:44:00,
2013-02-15 10:47:00,36.5,36.5,30.17,WSW,248,8.0,11.0,0,0.00,,,0.01,meteohub,2013-02-15 15:47:00,
2013-02-15 10:48:00,36.3,36.3,30.18,WSW,248,3.0,11.0,0,0.00,,,0.01,meteohub,2013-02-15 15:48:00,
2013-02-15 10:49:00,36.3,36.3,30.18,WSW,248,3.0,11.0,0,0.00,,,0.01,meteohub,2013-02-15 15:49:00,
2013-02-15 10:50:00,36.9,36.9,30.17,East,90,6.0,11.0,0,0.00,,,0.01,meteohub,2013-02-15 15:50:00,
2013-02-15 10:53:00,37.9,37.9,30.17,WSW,248,12.0,12.0,0,0.00,,,0.01,meteohub,2013-02-15 15:53:00,
2013-02-15 10:55:00,37.9,37.9,30.17,WSW,248,13.0,13.0,0,0.00,,,0.01,meteohub,2013-02-15 15:55:00,
2013-02-15 10:59:00,37.6,37.6,30.17,West,270,8.0,12.0,0,0.00,,,0.01,meteohub,2013-02-15 15:59:00,
2013-02-15 11:00:00,37.8,37.8,30.17,WSW,248,7.0,12.0,0,0.00,,,0.01,meteohub,2013-02-15 16:00:00,
2013-02-15 11:04:00,37.8,37.8,30.17,WSW,248,11.0,13.0,0,0.00,,,0.01,meteohub,2013-02-15 16:04:00,
2013-02-15 11:05:00,37.8,37.8,30.17,WSW,248,6.0,13.0,0,0.00,,,0.01,meteohub,2013-02-15 16:05:00,
2013-02-15 11:06:00,37.9,37.9,30.17,West,270,8.0,13.0,0,0.00,,,0.01,meteohub,2013-02-15 16:06:00,
2013-02-15 11:09:00,37.8,37.8,30.17,West,270,5.0,13.0,0,0.00,,,0.01,meteohub,2013-02-15 16:09:00,
2013-02-15 11:10:00,37.6,37.6,30.17,South,180,6.0,13.0,0,0.00,,,0.01,meteohub,2013-02-15 16:10:00,
2013-02-15 11:11:00,37.6,37.6,30.17,WSW,248,8.0,13.0,0,0.00,,,0.01,meteohub,2013-02-15 16:11:00,
2013-02-15 11:15:00,37.6,37.6,30.17,WSW,248,12.0,13.0,0,0.00,,,0.01,meteohub,2013-02-15 16:15:00,
2013-02-15 11:16:00,37.6,37.6,30.17,WSW,248,12.0,12.0,0,0.00,,,0.01,meteohub,2013-02-15 16:16:00,
2013-02-15 11:20:00,36.9,36.9,30.17,South,180,5.0,12.0,0,0.00,,,0.01,meteohub,2013-02-15 16:20:00,
2013-02-15 11:22:00,37.4,37.4,30.17,WSW,248,4.0,12.0,0,0.00,,,0.01,meteohub,2013-02-15 16:22:00,
2013-02-15 11:23:00,37.6,37.6,30.17,SE,135,11.0,12.0,0,0.00,,,0.01,meteohub,2013-02-15 16:23:00,
2013-02-15 11:25:00,37.8,37.8,30.17,West,270,6.0,12.0,0,0.00,,,0.01,meteohub,2013-02-15 16:25:00,
2013-02-15 11:26:00,37.9,37.9,30.17,WSW,248,5.0,14.0,0,0.00,,,0.01,meteohub,2013-02-15 16:26:00,
2013-02-15 11:27:00,38.5,38.5,30.17,South,180,3.0,14.0,0,0.00,,,0.01,meteohub,2013-02-15 16:27:00,
2013-02-15 11:31:00,38.8,38.8,30.17,West,270,10.0,14.0,0,0.00,,,0.01,meteohub,2013-02-15 16:31:00,
2013-02-15 11:33:00,39.4,39.4,30.17,WSW,248,10.0,14.0,0,0.00,,,0.01,meteohub,2013-02-15 16:33:00,
2013-02-15 11:36:00,39.0,39.0,30.17,WSW,248,8.0,14.0,0,0.00,,,0.01,meteohub,2013-02-15 16:36:00,
2013-02-15 11:38:00,38.8,38.8,30.17,NW,315,8.0,14.0,0,0.00,,,0.01,meteohub,2013-02-15 16:38:00,
2013-02-15 11:41:00,38.8,38.8,30.17,WSW,248,12.0,12.0,0,0.00,,,0.01,meteohub,2013-02-15 16:41:00,
2013-02-15 11:42:00,38.8,38.8,30.17,NW,315,8.0,12.0,0,0.00,,,0.01,meteohub,2013-02-15 16:42:00,
2013-02-15 11:44:00,38.5,38.5,30.17,West,270,11.0,12.0,0,0.00,,,0.01,meteohub,2013-02-15 16:44:00,
2013-02-15 11:46:00,37.9,37.9,30.17,West,270,12.0,12.0,0,0.00,,,0.01,meteohub,2013-02-15 16:46:00,
2013-02-15 11:48:00,37.8,37.8,30.17,NW,315,8.0,12.0,0,0.00,,,0.01,meteohub,2013-02-15 16:48:00,
2013-02-15 11:49:00,37.8,37.8,30.17,West,270,4.0,12.0,0,0.00,,,0.01,meteohub,2013-02-15 16:49:00,
2013-02-15 11:50:00,37.6,37.6,30.17,WSW,248,8.0,12.0,0,0.00,,,0.01,meteohub,2013-02-15 16:50:00,
2013-02-15 11:51:00,37.6,37.6,30.17,WSW,248,8.0,12.0,0,0.00,,,0.01,meteohub,2013-02-15 16:51:00,
2013-02-15 11:53:00,37.2,37.2,30.17,NW,315,7.0,12.0,0,0.00,,,0.01,meteohub,2013-02-15 16:53:00,
2013-02-15 11:54:00,37.4,37.4,30.17,North,0,5.0,12.0,0,0.00,,,0.01,meteohub,2013-02-15 16:54:00,
2013-02-15 11:55:00,37.4,37.4,30.17,NW,315,6.0,12.0,0,0.00,,,0.01,meteohub,2013-02-15 16:55:00,
2013-02-15 11:57:00,37.8,37.8,30.17,WSW,248,8.0,12.0,0,0.00,,,0.01,meteohub,2013-02-15 16:57:00,
2013-02-15 11:59:00,37.9,37.9,30.17,North,0,5.0,12.0,0,0.00,,,0.01,meteohub,2013-02-15 16:59:00,
2013-02-15 12:00:00,37.9,37.9,30.17,North,0,5.0,12.0,0,0.00,,,0.01,meteohub,2013-02-15 17:00:00,
2013-02-15 12:02:00,37.4,37.4,30.17,West,270,7.0,12.0,0,0.00,,,0.01,meteohub,2013-02-15 17:02:00,
2013-02-15 12:05:00,37.4,37.4,30.17,West,270,4.0,12.0,0,0.00,,,0.01,meteohub,2013-02-15 17:05:00,
2013-02-15 12:07:00,37.6,37.6,30.17,WSW,248,5.0,9.0,0,0.00,,,0.01,meteohub,2013-02-15 17:07:00,
2013-02-15 12:10:00,37.8,37.8,30.17,West,270,4.0,9.0,0,0.00,,,0.01,meteohub,2013-02-15 17:10:00,
2013-02-15 12:11:00,37.9,37.9,30.17,North,0,2.0,9.0,0,0.00,,,0.01,meteohub,2013-02-15 17:11:00,
2013-02-15 12:12:00,37.9,37.9,30.17,WSW,248,9.0,9.0,0,0.00,,,0.01,meteohub,2013-02-15 17:12:00,
2013-02-15 12:13:00,37.9,37.9,30.17,WSW,248,11.0,11.0,0,0.00,,,0.01,meteohub,2013-02-15 17:13:00,
2013-02-15 12:15:00,37.8,37.8,30.16,North,0,4.0,9.0,0,0.00,,,0.01,meteohub,2013-02-15 17:15:00,
2013-02-15 12:17:00,38.1,38.1,30.16,WSW,248,6.0,11.0,0,0.00,,,0.01,meteohub,2013-02-15 17:17:00,
2013-02-15 12:18:00,37.9,37.9,30.16,WSW,248,10.0,11.0,0,0.00,,,0.01,meteohub,2013-02-15 17:18:00,
2013-02-15 12:21:00,38.1,38.1,30.16,WSW,248,2.0,11.0,0,0.00,,,0.01,meteohub,2013-02-15 17:21:00,
2013-02-15 12:22:00,38.3,38.3,30.16,West,270,9.0,11.0,0,0.00,,,0.01,meteohub,2013-02-15 17:22:00,
2013-02-15 12:23:00,38.3,38.3,30.16,WSW,248,6.0,11.0,0,0.00,,,0.01,meteohub,2013-02-15 17:23:00,
2013-02-15 12:24:00,38.3,38.3,30.16,WSW,248,6.0,11.0,0,0.00,,,0.01,meteohub,2013-02-15 17:24:00,
2013-02-15 12:26:00,38.3,38.3,30.16,West,270,7.0,11.0,0,0.00,,,0.01,meteohub,2013-02-15 17:26:00,
2013-02-15 12:28:00,38.3,38.3,30.16,NW,315,4.0,11.0,0,0.00,,,0.01,meteohub,2013-02-15 17:28:00,
2013-02-15 12:29:00,38.7,38.7,30.16,WSW,248,4.0,11.0,0,0.00,,,0.01,meteohub,2013-02-15 17:29:00,
2013-02-15 12:32:00,39.0,39.0,30.16,NW,315,8.0,10.0,0,0.00,,,0.01,meteohub,2013-02-15 17:32:00,
2013-02-15 12:33:00,39.0,39.0,30.16,WSW,248,4.0,10.0,0,0.00,,,0.01,meteohub,2013-02-15 17:33:00,
2013-02-15 12:34:00,39.2,39.2,30.16,WSW,248,4.0,10.0,0,0.00,,,0.01,meteohub,2013-02-15 17:34:00,
2013-02-15 12:38:00,39.2,39.2,30.16,West,270,6.0,9.0,0,0.00,,,0.01,meteohub,2013-02-15 17:38:00,
2013-02-15 12:39:00,38.7,38.7,30.15,South,180,9.0,9.0,0,0.00,,,0.01,meteohub,2013-02-15 17:39:00,
2013-02-15 12:43:00,38.3,38.3,30.16,North,0,12.0,12.0,0,0.00,,,0.01,meteohub,2013-02-15 17:43:00,
2013-02-15 12:44:00,37.9,37.9,30.16,North,0,8.0,11.0,0,0.00,,,0.01,meteohub,2013-02-15 17:44:00,
2013-02-15 12:45:00,37.9,37.9,30.16,North,0,8.0,11.0,0,0.00,,,0.01,meteohub,2013-02-15 17:45:00,
2013-02-15 12:48:00,37.6,37.6,30.15,East,90,4.0,12.0,0,0.00,,,0.01,meteohub,2013-02-15 17:48:00,
2013-02-15 12:50:00,37.9,37.9,30.15,WSW,248,2.0,12.0,0,0.00,,,0.01,meteohub,2013-02-15 17:50:00,
2013-02-15 12:51:00,37.9,37.9,30.15,WSW,248,2.0,12.0,0,0.00,,,0.01,meteohub,2013-02-15 17:51:00,
2013-02-15 12:54:00,38.7,38.7,30.15,WSW,248,7.0,12.0,0,0.00,,,0.01,meteohub,2013-02-15 17:54:00,
2013-02-15 12:55:00,38.5,38.5,30.16,WSW,248,9.0,12.0,0,0.00,,,0.01,meteohub,2013-02-15 17:55:00,
2013-02-15 12:56:00,38.5,38.5,30.16,WSW,248,9.0,12.0,0,0.00,,,0.01,meteohub,2013-02-15 17:56:00,
2013-02-15 12:59:00,38.1,38.1,30.15,West,270,5.0,12.0,0,0.00,,,0.01,meteohub,2013-02-15 17:59:00,
2013-02-15 13:01:00,37.9,37.9,30.16,NW,315,5.0,12.0,0,0.00,,,0.01,meteohub,2013-02-15 18:01:00,
2013-02-15 13:04:00,37.9,37.9,30.16,West,270,5.0,12.0,0,0.00,,,0.01,meteohub,2013-02-15 18:04:00,
2013-02-15 13:06:00,37.9,37.9,30.16,West,270,6.0,12.0,0,0.00,,,0.01,meteohub,2013-02-15 18:06:00,
2013-02-15 13:07:00,37.8,37.8,30.16,West,270,7.0,12.0,0,0.00,,,0.01,meteohub,2013-02-15 18:07:00,
2013-02-15 13:10:00,37.2,37.2,30.15,West,270,11.0,12.0,0,0.00,,,0.01,meteohub,2013-02-15 18:10:00,
2013-02-15 13:11:00,36.7,36.7,30.16,WSW,248,8.0,15.0,0,0.00,,,0.01,meteohub,2013-02-15 18:11:00,
2013-02-15 13:12:00,36.7,36.7,30.15,North,0,5.0,15.0,0,0.00,,,0.01,meteohub,2013-02-15 18:12:00,
2013-02-15 13:14:00,36.7,36.7,30.15,WSW,248,4.0,15.0,0,0.00,,,0.01,meteohub,2013-02-15 18:14:00,
2013-02-15 13:15:00,36.7,36.7,30.15,SE,135,2.0,15.0,0,0.00,,,0.01,meteohub,2013-02-15 18:15:00,
2013-02-15 13:17:00,36.9,36.9,30.15,South,180,4.0,15.0,0,0.00,,,0.01,meteohub,2013-02-15 18:17:00,
2013-02-15 13:18:00,36.9,36.9,30.15,South,180,4.0,15.0,0,0.00,,,0.01,meteohub,2013-02-15 18:18:00,
2013-02-15 13:19:00,37.0,37.0,30.15,South,180,4.0,15.0,0,0.00,,,0.01,meteohub,2013-02-15 18:19:00,
2013-02-15 13:21:00,37.0,37.0,30.15,NW,315,4.0,15.0,0,0.00,,,0.01,meteohub,2013-02-15 18:21:00,
2013-02-15 13:23:00,37.0,37.0,30.15,West,270,5.0,15.0,0,0.00,,,0.01,meteohub,2013-02-15 18:23:00,
2013-02-15 13:24:00,37.0,37.0,30.15,WSW,248,4.0,15.0,0,0.00,,,0.01,meteohub,2013-02-15 18:24:00,
2013-02-15 13:26:00,37.0,37.0,30.15,South,180,4.0,13.0,0,0.00,,,0.01,meteohub,2013-02-15 18:26:00,
2013-02-15 13:30:00,36.9,36.9,30.15,North,0,4.0,13.0,0,0.00,,,0.01,meteohub,2013-02-15 18:30:00,
2013-02-15 13:31:00,36.9,36.9,30.15,North,0,4.0,8.0,0,0.00,,,0.01,meteohub,2013-02-15 18:31:00,
2013-02-15 13:33:00,36.7,36.7,30.15,NE,45,4.0,8.0,0,0.00,,,0.01,meteohub,2013-02-15 18:33:00,
2013-02-15 13:35:00,36.7,36.7,30.14,NW,315,8.0,8.0,0,0.00,,,0.01,meteohub,2013-02-15 18:35:00,
2013-02-15 13:36:00,36.5,36.5,30.14,West,270,4.0,8.0,0,0.00,,,0.01,meteohub,2013-02-15 18:36:00,
2013-02-15 13:38:00,36.5,36.5,30.14,West,270,6.0,8.0,0,0.00,,,0.01,meteohub,2013-02-15 18:38:00,
2013-02-15 13:40:00,36.5,36.5,30.14,West,270,4.0,10.0,0,0.00,,,0.01,meteohub,2013-02-15 18:40:00,
2013-02-15 13:41:00,36.5,36.5,30.14,West,270,3.0,10.0,0,0.00,,,0.01,meteohub,2013-02-15 18:41:00,
2013-02-15 13:42:00,36.5,36.5,30.14,West,270,3.0,10.0,0,0.00,,,0.01,meteohub,2013-02-15 18:42:00,
2013-02-15 13:43:00,36.7,36.7,30.14,WSW,248,4.0,10.0,0,0.00,,,0.01,meteohub,2013-02-15 18:43:00,
2013-02-15 13:46:00,36.7,36.7,30.14,WSW,248,8.0,10.0,0,0.00,,,0.01,meteohub,2013-02-15 18:46:00,
2013-02-15 13:47:00,36.7,36.7,30.14,WSW,248,5.0,10.0,0,0.00,,,0.01,meteohub,2013-02-15 18:47:00,
2013-02-15 13:48:00,36.7,36.7,30.14,NW,315,3.0,10.0,0,0.00,,,0.01,meteohub,2013-02-15 18:48:00,
2013-02-15 13:51:00,36.7,36.7,30.14,NW,315,9.0,10.0,0,0.00,,,0.01,meteohub,2013-02-15 18:51:00,
2013-02-15 13:52:00,36.5,36.5,30.14,WSW,248,11.0,11.0,0,0.00,,,0.01,meteohub,2013-02-15 18:52:00,
2013-02-15 13:53:00,36.5,36.5,30.14,WSW,248,11.0,11.0,0,0.00,,,0.01,meteohub,2013-02-15 18:53:00,
2013-02-15 13:54:00,36.5,36.5,30.14,North,0,4.0,10.0,0,0.00,,,0.01,meteohub,2013-02-15 18:54:00,
2013-02-15 13:57:00,36.5,36.5,30.14,NW,315,6.0,11.0,0,0.00,,,0.01,meteohub,2013-02-15 18:57:00,
2013-02-15 13:58:00,36.3,36.3,30.14,WSW,248,4.0,11.0,0,0.00,,,0.01,meteohub,2013-02-15 18:58:00,
2013-02-15 13:59:00,36.3,36.3,30.14,NE,45,4.0,11.0,0,0.00,,,0.01,meteohub,2013-02-15 18:59:00,
2013-02-15 14:04:00,36.5,36.5,30.14,NW,315,8.0,11.0,0,0.00,,,0.01,meteohub,2013-02-15 19:04:00,
2013-02-15 14:05:00,36.5,36.5,30.14,NW,315,4.0,11.0,0,0.00,,,0.01,meteohub,2013-02-15 19:05:00,
2013-02-15 14:10:00,36.9,36.9,30.14,West,270,4.0,11.0,0,0.00,,,0.01,meteohub,2013-02-15 19:10:00,
2013-02-15 14:11:00,36.9,36.9,30.14,West,270,11.0,11.0,0,0.00,,,0.01,meteohub,2013-02-15 19:11:00,
2013-02-15 14:14:00,36.9,36.9,30.14,NW,315,8.0,10.0,0,0.00,,,0.01,meteohub,2013-02-15 19:14:00,
2013-02-15 14:15:00,36.7,36.7,30.14,West,270,7.0,10.0,0,0.00,,,0.01,meteohub,2013-02-15 19:15:00,
2013-02-15 14:16:00,36.7,36.7,30.14,West,270,7.0,11.0,0,0.00,,,0.01,meteohub,2013-02-15 19:16:00,
2013-02-15 14:19:00,36.5,36.5,30.14,NW,315,8.0,11.0,0,0.00,,,0.01,meteohub,2013-02-15 19:19:00,
2013-02-15 14:21:00,36.5,36.5,30.14,WSW,248,8.0,11.0,0,0.00,,,0.01,meteohub,2013-02-15 19:21:00,
2013-02-15 14:23:00,36.5,36.5,30.14,West,270,5.0,11.0,0,0.00,,,0.01,meteohub,2013-02-15 19:23:00,
2013-02-15 14:26:00,36.9,36.9,30.13,West,270,7.0,11.0,0,0.00,,,0.01,meteohub,2013-02-15 19:26:00,
2013-02-15 14:28:00,36.7,36.7,30.13,WSW,248,4.0,11.0,0,0.00,,,0.01,meteohub,2013-02-15 19:28:00,
2013-02-15 14:31:00,36.7,36.7,30.13,North,0,9.0,10.0,0,0.00,,,0.01,meteohub,2013-02-15 19:31:00,
2013-02-15 14:33:00,36.1,36.1,30.13,West,270,10.0,10.0,0,0.00,,,0.01,meteohub,2013-02-15 19:33:00,
2013-02-15 14:34:00,36.1,36.1,30.13,West,270,10.0,10.0,0,0.00,,,0.01,meteohub,2013-02-15 19:34:00,
2013-02-15 14:36:00,36.0,36.0,30.13,West,270,9.0,12.0,0,0.00,,,0.01,meteohub,2013-02-15 19:36:00,
2013-02-15 14:37:00,36.0,36.0,30.13,West,270,9.0,12.0,0,0.00,,,0.01,meteohub,2013-02-15 19:37:00,
2013-02-15 14:38:00,35.8,35.8,30.14,South,180,12.0,12.0,0,0.00,,,0.01,meteohub,2013-02-15 19:38:00,
2013-02-15 14:39:00,35.8,35.8,30.14,South,180,12.0,12.0,0,0.00,,,0.01,meteohub,2013-02-15 19:39:00,
2013-02-15 14:42:00,35.8,35.8,30.14,South,180,7.0,14.0,0,0.00,,,0.01,meteohub,2013-02-15 19:42:00,
2013-02-15 14:45:00,35.6,35.6,30.13,WSW,248,4.0,14.0,0,0.00,,,0.01,meteohub,2013-02-15 19:45:00,
2013-02-15 14:46:00,35.6,35.6,30.13,WSW,248,4.0,14.0,0,0.00,,,0.01,meteohub,2013-02-15 19:46:00,
2013-02-15 14:47:00,35.6,35.6,30.14,West,270,11.0,14.0,0,0.00,,,0.01,meteohub,2013-02-15 19:47:00,
2013-02-15 14:51:00,35.6,35.6,30.14,WSW,248,7.0,14.0,0,0.00,,,0.01,meteohub,2013-02-15 19:51:00,
2013-02-15 14:53:00,35.4,35.4,30.14,West,270,4.0,14.0,0,0.00,,,0.01,meteohub,2013-02-15 19:53:00,
2013-02-15 14:54:00,35.4,35.4,30.14,West,270,4.0,14.0,0,0.00,,,0.01,meteohub,2013-02-15 19:54:00,
2013-02-15 14:56:00,35.6,35.6,30.14,West,270,4.0,11.0,0,0.00,,,0.01,meteohub,2013-02-15 19:56:00,
2013-02-15 14:58:00,35.6,35.6,30.14,West,270,3.0,11.0,0,0.00,,,0.01,meteohub,2013-02-15 19:58:00,
2013-02-15 15:00:00,35.6,35.6,30.14,South,180,8.0,11.0,0,0.00,,,0.01,meteohub,2013-02-15 20:00:00,
2013-02-15 15:01:00,35.6,35.6,30.14,South,180,8.0,11.0,0,0.00,,,0.01,meteohub,2013-02-15 20:01:00,
2013-02-15 15:02:00,35.6,35.6,30.14,WSW,248,11.0,11.0,0,0.00,,,0.01,meteohub,2013-02-15 20:02:00,
2013-02-15 15:03:00,35.2,35.2,30.14,WSW,248,11.0,11.0,0,0.00,,,0.01,meteohub,2013-02-15 20:03:00,
2013-02-15 15:06:00,35.1,35.1,30.14,WSW,248,9.0,13.0,0,0.00,,,0.01,meteohub,2013-02-15 20:06:00,
2013-02-15 15:07:00,34.9,34.9,30.14,WSW,248,7.0,13.0,0,0.00,,,0.01,meteohub,2013-02-15 20:07:00,
2013-02-15 15:08:00,34.9,34.9,30.14,WSW,248,5.0,13.0,0,0.00,,,0.01,meteohub,2013-02-15 20:08:00,
2013-02-15 15:11:00,34.7,34.7,30.14,WSW,248,8.0,13.0,0,0.00,,,0.01,meteohub,2013-02-15 20:11:00,
2013-02-15 15:12:00,34.7,34.7,30.14,West,270,7.0,13.0,0,0.00,,,0.01,meteohub,2013-02-15 20:12:00,
2013-02-15 15:13:00,34.7,34.7,30.14,West,270,7.0,13.0,0,0.00,,,0.01,meteohub,2013-02-15 20:13:00,
2013-02-15 15:15:00,34.5,34.5,30.14,South,180,9.0,13.0,0,0.00,,,0.01,meteohub,2013-02-15 20:15:00,
2013-02-15 15:16:00,34.3,34.3,30.14,WSW,248,9.0,13.0,0,0.00,,,0.01,meteohub,2013-02-15 20:16:00,
2013-02-15 15:18:00,34.3,34.3,30.14,NW,315,6.0,13.0,0,0.00,,,0.01,meteohub,2013-02-15 20:18:00,
2013-02-15 15:21:00,34.5,34.5,30.14,West,270,6.0,11.0,0,0.00,,,0.01,meteohub,2013-02-15 20:21:00,
2013-02-15 15:22:00,34.5,34.5,30.14,WSW,248,3.0,11.0,0,0.00,,,0.01,meteohub,2013-02-15 20:22:00,
2013-02-15 15:23:00,34.5,34.5,30.14,SE,135,10.0,11.0,0,0.00,,,0.01,meteohub,2013-02-15 20:23:00,
2013-02-15 15:26:00,34.5,34.5,30.14,WNW,293,6.0,11.0,0,0.00,,,0.01,meteohub,2013-02-15 20:26:00,
2013-02-15 15:27:00,34.5,34.5,30.14,WSW,248,4.0,11.0,0,0.00,,,0.01,meteohub,2013-02-15 20:27:00,
2013-02-15 15:28:00,34.5,34.5,30.14,WSW,248,3.0,11.0,0,0.00,,,0.01,meteohub,2013-02-15 20:28:00,
2013-02-15 15:30:00,34.7,34.7,30.14,NW,315,4.0,11.0,0,0.00,,,0.01,meteohub,2013-02-15 20:30:00,
2013-02-15 15:31:00,34.7,34.7,30.14,WSW,248,11.0,11.0,0,0.00,,,0.01,meteohub,2013-02-15 20:31:00,
2013-02-15 15:32:00,34.7,34.7,30.14,WSW,248,11.0,11.0,0,0.00,,,0.01,meteohub,2013-02-15 20:32:00,
2013-02-15 15:33:00,34.9,34.9,30.14,East,90,7.0,10.0,0,0.00,,,0.01,meteohub,2013-02-15 20:33:00,
2013-02-15 15:36:00,35.1,35.1,30.14,South,180,4.0,11.0,0,0.00,,,0.01,meteohub,2013-02-15 20:36:00,
2013-02-15 15:37:00,35.1,35.1,30.14,WSW,248,6.0,11.0,0,0.00,,,0.01,meteohub,2013-02-15 20:37:00,
2013-02-15 15:38:00,35.1,35.1,30.14,WSW,248,7.0,11.0,0,0.00,,,0.01,meteohub,2013-02-15 20:38:00,
2013-02-15 15:41:00,34.9,34.9,30.14,WSW,248,4.0,11.0,0,0.00,,,0.01,meteohub,2013-02-15 20:41:00,
2013-02-15 15:42:00,34.7,34.7,30.14,WSW,248,6.0,11.0,0,0.00,,,0.01,meteohub,2013-02-15 20:42:00,
2013-02-15 15:44:00,34.5,34.5,30.14,WSW,248,8.0,11.0,0,0.00,,,0.01,meteohub,2013-02-15 20:44:00,
2013-02-15 15:46:00,34.5,34.5,30.14,WSW,248,8.0,11.0,0,0.00,,,0.01,meteohub,2013-02-15 20:46:00,
2013-02-15 15:48:00,34.0,34.0,30.14,WSW,248,6.0,11.0,0,0.00,,,0.01,meteohub,2013-02-15 20:48:00,
2013-02-15 15:51:00,34.2,34.2,30.14,South,180,6.0,10.0,0,0.00,,,0.01,meteohub,2013-02-15 20:51:00,
2013-02-15 15:53:00,34.2,34.2,30.14,South,180,4.0,10.0,0,0.00,,,0.01,meteohub,2013-02-15 20:53:00,
2013-02-15 15:54:00,34.2,34.2,30.14,West,270,5.0,10.0,0,0.00,,,0.01,meteohub,2013-02-15 20:54:00,
2013-02-15 15:56:00,34.2,34.2,30.14,WSW,248,5.0,10.0,0,0.00,,,0.01,meteohub,2013-02-15 20:56:00,
2013-02-15 15:58:00,34.2,34.2,30.14,West,270,5.0,10.0,0,0.00,,,0.01,meteohub,2013-02-15 20:58:00,
2013-02-15 16:01:00,34.0,34.0,30.14,West,270,6.0,8.0,0,0.00,,,0.01,meteohub,2013-02-15 21:01:00,
2013-02-15 16:02:00,34.0,34.0,30.14,West,270,6.0,8.0,0,0.00,,,0.01,meteohub,2013-02-15 21:02:00,
2013-02-15 16:03:00,34.0,34.0,30.14,WSW,248,6.0,8.0,0,0.00,,,0.01,meteohub,2013-02-15 21:03:00,
2013-02-15 16:04:00,34.0,34.0,30.14,WSW,248,2.0,8.0,0,0.00,,,0.01,meteohub,2013-02-15 21:04:00,
2013-02-15 16:07:00,34.2,34.2,30.14,WSW,248,2.0,8.0,0,0.00,,,0.01,meteohub,2013-02-15 21:07:00,
2013-02-15 16:09:00,34.2,34.2,30.14,WSW,248,4.0,8.0,0,0.00,,,0.01,meteohub,2013-02-15 21:09:00,
2013-02-15 16:12:00,34.3,34.3,30.14,WSW,248,8.0,8.0,0,0.00,,,0.01,meteohub,2013-02-15 21:12:00,
2013-02-15 16:14:00,34.2,34.2,30.14,SE,135,4.0,8.0,0,0.00,,,0.01,meteohub,2013-02-15 21:14:00,
2013-02-15 16:17:00,34.3,34.3,30.14,WSW,248,6.0,8.0,0,0.00,,,0.01,meteohub,2013-02-15 21:17:00,
2013-02-15 16:18:00,34.3,34.3,30.14,WSW,248,6.0,8.0,0,0.00,,,0.01,meteohub,2013-02-15 21:18:00,
2013-02-15 16:19:00,34.3,34.3,30.14,South,180,3.0,8.0,0,0.00,,,0.01,meteohub,2013-02-15 21:19:00,
2013-02-15 16:21:00,34.3,34.3,30.14,South,180,3.0,8.0,0,0.00,,,0.01,meteohub,2013-02-15 21:21:00,
2013-02-15 16:23:00,34.5,34.5,30.14,North,0,4.0,8.0,0,0.00,,,0.01,meteohub,2013-02-15 21:23:00,
2013-02-15 16:24:00,34.5,34.5,30.14,West,270,4.0,8.0,0,0.00,,,0.01,meteohub,2013-02-15 21:24:00,
2013-02-15 16:25:00,34.5,34.5,30.14,West,270,4.0,8.0,0,0.00,,,0.01,meteohub,2013-02-15 21:25:00,
2013-02-15 16:26:00,34.5,34.5,30.14,West,270,8.0,8.0,0,0.00,,,0.01,meteohub,2013-02-15 21:26:00,
2013-02-15 16:28:00,34.3,34.3,30.14,WSW,248,4.0,8.0,0,0.00,,,0.01,meteohub,2013-02-15 21:28:00,
2013-02-15 16:30:00,34.3,34.3,30.14,West,270,4.0,8.0,0,0.00,,,0.01,meteohub,2013-02-15 21:30:00,
2013-02-15 16:31:00,34.3,34.3,30.14,WSW,248,5.0,8.0,0,0.00,,,0.01,meteohub,2013-02-15 21:31:00,
2013-02-15 16:32:00,34.3,34.3,30.14,WSW,248,5.0,8.0,0,0.00,,,0.01,meteohub,2013-02-15 21:32:00,
2013-02-15 16:33:00,34.3,34.3,30.14,WSW,248,6.0,8.0,0,0.00,,,0.01,meteohub,2013-02-15 21:33:00,
2013-02-15 16:36:00,34.2,34.2,30.14,WSW,248,2.0,8.0,0,0.00,,,0.01,meteohub,2013-02-15 21:36:00,
2013-02-15 16:37:00,34.3,34.3,30.14,West,270,4.0,8.0,0,0.00,,,0.01,meteohub,2013-02-15 21:37:00,
2013-02-15 16:39:00,34.3,34.3,30.14,WSW,248,7.0,8.0,0,0.00,,,0.01,meteohub,2013-02-15 21:39:00,
2013-02-15 16:42:00,34.0,34.0,30.15,West,270,8.0,8.0,0,0.00,,,0.01,meteohub,2013-02-15 21:42:00,
2013-02-15 16:43:00,34.0,34.0,30.15,West,270,6.0,8.0,0,0.00,,,0.01,meteohub,2013-02-15 21:43:00,
2013-02-15 16:44:00,34.0,34.0,30.14,South,180,6.0,8.0,0,0.00,,,0.01,meteohub,2013-02-15 21:44:00,
2013-02-15 16:47:00,33.8,33.8,30.14,WSW,248,2.0,8.0,0,0.00,,,0.01,meteohub,2013-02-15 21:47:00,
2013-02-15 16:48:00,33.8,33.8,30.14,West,270,5.0,8.0,0,0.00,,,0.01,meteohub,2013-02-15 21:48:00,
2013-02-15 16:50:00,33.8,33.8,30.14,WSW,248,4.0,8.0,0,0.00,,,0.01,meteohub,2013-02-15 21:50:00,
2013-02-15 16:52:00,33.8,33.8,30.15,West,270,8.0,8.0,0,0.00,,,0.01,meteohub,2013-02-15 21:52:00,
2013-02-15 16:53:00,33.6,33.6,30.14,West,270,3.0,8.0,0,0.00,,,0.01,meteohub,2013-02-15 21:53:00,
2013-02-15 16:54:00,33.6,33.6,30.14,WSW,248,6.0,8.0,0,0.00,,,0.01,meteohub,2013-02-15 21:54:00,
2013-02-15 16:56:00,33.6,33.6,30.14,West,270,4.0,8.0,0,0.00,,,0.01,meteohub,2013-02-15 21:56:00,
2013-02-15 16:57:00,33.6,33.6,30.14,WSW,248,3.0,8.0,0,0.00,,,0.01,meteohub,2013-02-15 21:57:00,
2013-02-15 16:58:00,33.6,33.6,30.14,West,270,3.0,8.0,0,0.00,,,0.01,meteohub,2013-02-15 21:58:00,
2013-02-15 16:59:00,33.4,33.4,30.14,West,270,4.0,8.0,0,0.00,,,0.01,meteohub,2013-02-15 21:59:00,
2013-02-15 17:01:00,33.4,33.4,30.14,West,270,3.0,8.0,0,0.00,,,0.01,meteohub,2013-02-15 22:01:00,
2013-02-15 17:03:00,33.4,33.4,30.14,WSW,248,4.0,8.0,0,0.00,,,0.01,meteohub,2013-02-15 22:03:00,
2013-02-15 17:04:00,33.4,33.4,30.14,South,180,4.0,8.0,0,0.00,,,0.01,meteohub,2013-02-15 22:04:00,
2013-02-15 17:06:00,33.3,33.3,30.14,WSW,248,7.0,8.0,0,0.00,,,0.01,meteohub,2013-02-15 22:06:00,
2013-02-15 17:08:00,33.3,-17.5,30.14,South,180,3.0,8.0,10,0.00,,,0.01,meteohub,2013-02-15 22:08:00,
2013-02-15 17:10:00,33.3,-15.7,30.15,WSW,248,2.0,8.0,11,0.00,,,0.01,meteohub,2013-02-15 22:10:00,
2013-02-15 17:11:00,33.3,-13.9,30.15,WSW,248,1.0,8.0,12,0.00,,,0.01,meteohub,2013-02-15 22:11:00,
2013-02-15 17:13:00,33.3,-13.9,30.15,NW,315,4.0,8.0,12,0.00,,,0.01,meteohub,2013-02-15 22:13:00,
2013-02-15 17:15:00,33.1,-12.5,30.14,West,270,6.0,7.0,13,0.00,,,0.01,meteohub,2013-02-15 22:15:00,
2013-02-15 17:16:00,33.1,-11.0,30.14,WSW,248,3.0,7.0,14,0.00,,,0.01,meteohub,2013-02-15 22:16:00,
2013-02-15 17:18:00,33.1,-11.0,30.15,West,270,6.0,7.0,14,0.00,,,0.01,meteohub,2013-02-15 22:18:00,
2013-02-15 17:20:00,32.9,-9.8,30.14,WSW,248,6.0,7.0,15,0.00,,,0.01,meteohub,2013-02-15 22:20:00,
2013-02-15 17:21:00,32.9,-9.8,30.14,WSW,248,6.0,7.0,15,0.00,,,0.01,meteohub,2013-02-15 22:21:00,
2013-02-15 17:22:00,32.7,-8.5,30.14,West,270,4.0,7.0,16,0.00,,,0.01,meteohub,2013-02-15 22:22:00,
2013-02-15 17:23:00,32.5,-6.3,30.14,WSW,248,3.0,7.0,18,0.00,,,0.01,meteohub,2013-02-15 22:23:00,
2013-02-15 17:26:00,32.5,-6.3,30.14,West,270,2.0,10.0,18,0.00,,,0.01,meteohub,2013-02-15 22:26:00,
2013-02-15 17:27:00,32.4,-5.3,30.15,WSW,248,3.0,10.0,19,0.00,,,0.01,meteohub,2013-02-15 22:27:00,
2013-02-15 17:29:00,32.4,-5.3,30.15,NE,45,2.0,10.0,19,0.00,,,0.01,meteohub,2013-02-15 22:29:00,
2013-02-15 17:31:00,32.4,-5.3,30.15,NE,45,2.0,10.0,19,0.00,,,0.01,meteohub,2013-02-15 22:31:00,
2013-02-15 17:32:00,32.4,-5.3,30.15,NE,45,2.0,10.0,19,0.00,,,0.01,meteohub,2013-02-15 22:32:00,
2013-02-15 17:33:00,32.4,-5.3,30.15,NE,45,2.0,10.0,19,0.00,,,0.01,meteohub,2013-02-15 22:33:00,
2013-02-15 17:35:00,32.4,-5.3,30.15,NE,45,2.0,10.0,19,0.00,,,0.01,meteohub,2013-02-15 22:35:00,
2013-02-15 17:36:00,32.4,-3.3,30.15,West,270,5.0,10.0,21,0.00,,,0.01,meteohub,2013-02-15 22:36:00,
2013-02-15 17:37:00,32.4,-3.3,30.15,West,270,5.0,10.0,21,0.00,,,0.01,meteohub,2013-02-15 22:37:00,
2013-02-15 17:38:00,32.4,-3.3,30.15,West,270,1.0,10.0,21,0.00,,,0.01,meteohub,2013-02-15 22:38:00,
2013-02-15 17:40:00,32.4,-3.3,30.15,NW,315,2.0,6.0,21,0.00,,,0.01,meteohub,2013-02-15 22:40:00,
2013-02-15 17:42:00,32.4,-3.3,30.15,NW,315,5.0,6.0,21,0.00,,,0.01,meteohub,2013-02-15 22:42:00,
2013-02-15 17:43:00,32.4,-3.3,30.15,NW,315,5.0,6.0,21,0.00,,,0.01,meteohub,2013-02-15 22:43:00,
2013-02-15 17:45:00,32.4,-3.3,30.15,NW,315,1.0,6.0,21,0.00,,,0.01,meteohub,2013-02-15 22:45:00,
2013-02-15 17:47:00,32.2,-2.4,30.15,West,270,5.0,6.0,22,0.00,,,0.01,meteohub,2013-02-15 22:47:00,
2013-02-15 17:48:00,32.2,-2.4,30.14,West,270,4.0,6.0,22,0.00,,,0.01,meteohub,2013-02-15 22:48:00,
2013-02-15 17:49:00,32.2,-2.4,30.15,West,270,3.0,6.0,22,0.00,,,0.01,meteohub,2013-02-15 22:49:00,
2013-02-15 17:50:00,32.2,-2.4,30.15,West,270,4.0,6.0,22,0.00,,,0.01,meteohub,2013-02-15 22:50:00,
2013-02-15 17:52:00,32.2,-2.4,30.15,West,270,6.0,6.0,22,0.00,,,0.01,meteohub,2013-02-15 22:52:00,
2013-02-15 17:54:00,32.2,-2.4,30.15,NW,315,4.0,6.0,22,0.00,,,0.01,meteohub,2013-02-15 22:54:00,
2013-02-15 17:55:00,32.2,-2.4,30.15,NW,315,6.0,6.0,22,0.00,,,0.01,meteohub,2013-02-15 22:55:00,
2013-02-15 17:57:00,32.2,-2.4,30.15,WSW,248,2.0,8.0,22,0.00,,,0.01,meteohub,2013-02-15 22:57:00,
2013-02-15 17:58:00,32.2,-2.4,30.15,NW,315,5.0,8.0,22,0.00,,,0.01,meteohub,2013-02-15 22:58:00,
2013-02-15 18:00:00,32.0,-2.6,30.15,West,270,3.0,8.0,22,0.00,,,0.01,meteohub,2013-02-15 23:00:00,
2013-02-15 18:03:00,32.0,-1.7,30.15,West,270,2.0,8.0,23,0.00,,,0.01,meteohub,2013-02-15 23:03:00,
2013-02-15 18:05:00,32.0,-1.7,30.15,NW,315,4.0,8.0,23,0.00,,,0.01,meteohub,2013-02-15 23:05:00,
2013-02-15 18:06:00,32.0,-1.7,30.15,WSW,248,3.0,8.0,23,0.00,,,0.01,meteohub,2013-02-15 23:06:00,
2013-02-15 18:08:00,31.8,-1.8,30.15,WSW,248,3.0,8.0,23,0.00,,,0.01,meteohub,2013-02-15 23:08:00,
2013-02-15 18:09:00,31.8,-1.8,30.15,WSW,248,3.0,8.0,23,0.00,,,0.01,meteohub,2013-02-15 23:09:00,
2013-02-15 18:11:00,31.8,-0.9,30.15,West,270,4.0,8.0,24,0.00,,,0.01,meteohub,2013-02-15 23:11:00,
2013-02-15 18:12:00,31.8,-0.9,30.15,North,0,3.0,8.0,24,0.00,,,0.01,meteohub,2013-02-15 23:12:00,
2013-02-15 18:14:00,31.6,-0.2,30.15,NW,315,3.0,8.0,25,0.00,,,0.01,meteohub,2013-02-15 23:14:00,
2013-02-15 18:16:00,31.6,-0.2,30.16,NW,315,7.0,8.0,25,0.00,,,0.01,meteohub,2013-02-15 23:16:00,
2013-02-15 18:17:00,31.5,0.5,30.16,South,180,4.0,8.0,26,0.00,,,0.01,meteohub,2013-02-15 23:17:00,
2013-02-15 18:19:00,31.3,0.3,30.16,West,270,4.0,8.0,26,0.00,,,0.01,meteohub,2013-02-15 23:19:00,
2013-02-15 18:20:00,31.3,0.3,30.16,NW,315,4.0,8.0,26,0.00,,,0.01,meteohub,2013-02-15 23:20:00,
2013-02-15 18:21:00,31.1,1.0,30.16,South,180,3.0,8.0,27,0.00,,,0.01,meteohub,2013-02-15 23:21:00,
2013-02-15 18:23:00,31.1,1.0,30.16,West,270,3.0,8.0,27,0.00,,,0.01,meteohub,2013-02-15 23:23:00,
2013-02-15 18:24:00,30.9,1.6,30.16,West,270,1.0,8.0,28,0.00,,,0.01,meteohub,2013-02-15 23:24:00,
2013-02-15 18:26:00,30.9,1.6,30.16,WSW,248,4.0,8.0,28,0.00,,,0.01,meteohub,2013-02-15 23:26:00,
2013-02-15 18:27:00,30.9,1.6,30.16,WSW,248,8.0,8.0,28,0.00,,,0.01,meteohub,2013-02-15 23:27:00,
2013-02-15 18:29:00,30.9,2.3,30.16,SE,135,2.0,8.0,29,0.00,,,0.01,meteohub,2013-02-15 23:29:00,
2013-02-15 18:30:00,30.9,2.3,30.16,West,270,2.0,8.0,29,0.00,,,0.01,meteohub,2013-02-15 23:30:00,
2013-02-15 18:31:00,30.9,2.3,30.16,West,270,2.0,8.0,29,0.00,,,0.01,meteohub,2013-02-15 23:31:00,
2013-02-15 18:32:00,30.9,2.3,30.16,NW,315,2.0,8.0,29,0.00,,,0.01,meteohub,2013-02-15 23:32:00,
2013-02-15 18:35:00,30.7,3.0,30.16,NW,315,3.0,8.0,30,0.00,,,0.01,meteohub,2013-02-15 23:35:00,
2013-02-15 18:36:00,30.7,3.7,30.16,WSW,248,1.0,8.0,31,0.00,,,0.01,meteohub,2013-02-15 23:36:00,
2013-02-15 18:37:00,30.7,3.7,30.16,West,270,2.0,8.0,31,0.00,,,0.01,meteohub,2013-02-15 23:37:00,
2013-02-15 18:40:00,30.7,3.7,30.16,NW,315,2.0,8.0,31,0.00,,,0.01,meteohub,2013-02-15 23:40:00,
2013-02-15 18:41:00,30.7,3.7,30.16,WSW,248,2.0,8.0,31,0.00,,,0.01,meteohub,2013-02-15 23:41:00,
2013-02-15 18:43:00,30.6,3.6,30.16,NW,315,3.0,8.0,31,0.00,,,0.01,meteohub,2013-02-15 23:43:00,
2013-02-15 18:45:00,30.6,3.6,30.16,NW,315,3.0,4.0,31,0.00,,,0.01,meteohub,2013-02-15 23:45:00,
2013-02-15 18:46:00,30.6,3.6,30.16,NW,315,3.0,4.0,31,0.00,,,0.01,meteohub,2013-02-15 23:46:00,
2013-02-15 18:48:00,30.6,4.3,30.16,West,270,2.0,4.0,32,0.00,,,0.01,meteohub,2013-02-15 23:48:00,
2013-02-15 18:51:00,30.6,4.8,30.16,North,0,4.0,4.0,33,0.00,,,0.01,meteohub,2013-02-15 23:51:00,
2013-02-15 18:52:00,30.6,4.8,30.15,WSW,248,3.0,3.0,33,0.00,,,0.01,meteohub,2013-02-15 23:52:00,
2013-02-15 18:54:00,30.6,4.8,30.16,West,270,3.0,3.0,33,0.00,,,0.01,meteohub,2013-02-15 23:54:00,
2013-02-15 18:56:00,30.6,5.5,30.16,West,270,2.0,4.0,34,0.00,,,0.01,meteohub,2013-02-15 23:56:00,
2013-02-15 18:57:00,30.6,5.5,30.15,WSW,248,2.0,4.0,34,0.00,,,0.01,meteohub,2013-02-15 23:57:00,
2013-02-15 18:59:00,30.6,5.5,30.15,WSW,248,3.0,4.0,34,0.00,,,0.01,meteohub,2013-02-15 23:59:00,
2013-02-15 19:02:00,30.4,6.1,30.15,West,270,3.0,4.0,35,0.00,,,0.01,meteohub,2013-02-16 00:02:00,
2013-02-15 19:03:00,30.4,6.1,30.16,WSW,248,2.0,4.0,35,0.00,,,0.01,meteohub,2013-02-16 00:03:00,
2013-02-15 19:04:00,30.4,6.1,30.16,WSW,248,3.0,4.0,35,0.00,,,0.01,meteohub,2013-02-16 00:04:00,
2013-02-15 19:07:00,30.4,6.6,30.16,West,270,2.0,4.0,36,0.00,,,0.01,meteohub,2013-02-16 00:07:00,
2013-02-15 19:08:00,30.4,6.6,30.16,WSW,248,4.0,4.0,36,0.00,,,0.01,meteohub,2013-02-16 00:08:00,
2013-02-15 19:09:00,30.4,7.2,30.16,WSW,248,2.0,4.0,37,0.00,,,0.01,meteohub,2013-02-16 00:09:00,
2013-02-15 19:13:00,30.4,7.9,30.16,West,270,4.0,4.0,38,0.00,,,0.01,meteohub,2013-02-16 00:13:00,
2013-02-15 19:14:00,30.4,7.9,30.16,West,270,4.0,4.0,38,0.00,,,0.01,meteohub,2013-02-16 00:14:00,
2013-02-15 19:16:00,30.2,7.7,30.16,West,270,10.0,10.0,38,0.00,,,0.01,meteohub,2013-02-16 00:16:00,
2013-02-15 19:18:00,30.2,7.7,30.16,WSW,248,4.0,7.0,38,0.00,,,0.01,meteohub,2013-02-16 00:18:00,
2013-02-15 19:19:00,30.2,7.7,30.16,WSW,248,7.0,7.0,38,0.00,,,0.01,meteohub,2013-02-16 00:19:00,
2013-02-15 19:22:00,30.0,8.1,30.15,West,270,4.0,10.0,39,0.00,,,0.01,meteohub,2013-02-16 00:22:00,
2013-02-15 19:24:00,30.0,8.1,30.16,NW,315,4.0,10.0,39,0.00,,,0.01,meteohub,2013-02-16 00:24:00,
2013-02-15 19:25:00,30.0,8.1,30.16,NE,45,3.0,10.0,39,0.00,,,0.01,meteohub,2013-02-16 00:25:00,
2013-02-15 19:27:00,30.0,8.1,30.15,West,270,6.0,10.0,39,0.00,,,0.01,meteohub,2013-02-16 00:27:00,
2013-02-15 19:29:00,30.0,8.1,30.16,WSW,248,4.0,10.0,39,0.00,,,0.01,meteohub,2013-02-16 00:29:00,
2013-02-15 19:30:00,30.0,8.1,30.16,WSW,248,4.0,10.0,39,0.00,,,0.01,meteohub,2013-02-16 00:30:00,
2013-02-15 19:31:00,30.0,8.1,30.16,WSW,248,4.0,10.0,39,0.00,,,0.01,meteohub,2013-02-16 00:31:00,
2013-02-15 19:32:00,30.0,8.1,30.16,WSW,248,4.0,10.0,39,0.00,,,0.01,meteohub,2013-02-16 00:32:00,
2013-02-15 19:35:00,30.0,8.1,30.16,WSW,248,4.0,7.0,39,0.00,,,0.01,meteohub,2013-02-16 00:35:00,
2013-02-15 19:36:00,30.0,8.1,30.16,NW,315,7.0,7.0,39,0.00,,,0.01,meteohub,2013-02-16 00:36:00,
2013-02-15 19:38:00,29.8,7.9,30.16,NW,315,6.0,7.0,39,0.00,,,0.01,meteohub,2013-02-16 00:38:00,
2013-02-15 19:40:00,29.8,7.9,30.16,NW,315,7.0,7.0,39,0.00,,,0.01,meteohub,2013-02-16 00:40:00,
2013-02-15 19:41:00,29.8,7.9,30.16,NW,315,7.0,7.0,39,0.00,,,0.01,meteohub,2013-02-16 00:41:00,
2013-02-15 19:42:00,29.8,7.9,30.16,West,270,2.0,7.0,39,0.00,,,0.01,meteohub,2013-02-16 00:42:00,
2013-02-15 19:43:00,29.8,7.9,30.16,North,0,0.0,7.0,39,0.00,,,0.01,meteohub,2013-02-16 00:43:00,
2013-02-15 19:45:00,29.8,8.4,30.16,NW,315,2.0,7.0,40,0.00,,,0.01,meteohub,2013-02-16 00:45:00,
2013-02-15 19:46:00,29.8,8.4,30.16,WSW,248,2.0,7.0,40,0.00,,,0.01,meteohub,2013-02-16 00:46:00,
2013-02-15 19:47:00,29.8,8.4,30.16,WSW,248,1.0,7.0,40,0.00,,,0.01,meteohub,2013-02-16 00:47:00,
2013-02-15 19:49:00,29.8,8.4,30.16,WSW,248,2.0,7.0,40,0.00,,,0.01,meteohub,2013-02-16 00:49:00,
2013-02-15 19:50:00,29.8,8.4,30.16,WSW,248,2.0,7.0,40,0.00,,,0.01,meteohub,2013-02-16 00:50:00,
2013-02-15 19:51:00,29.8,8.4,30.16,NW,315,2.0,7.0,40,0.00,,,0.01,meteohub,2013-02-16 00:51:00,
2013-02-15 19:55:00,30.0,8.6,30.16,SE,135,4.0,7.0,40,0.00,,,0.01,meteohub,2013-02-16 00:55:00,
2013-02-15 19:56:00,30.0,8.6,30.16,West,270,3.0,7.0,40,0.00,,,0.01,meteohub,2013-02-16 00:56:00,
2013-02-15 19:57:00,30.0,8.6,30.16,West,270,2.0,7.0,40,0.00,,,0.01,meteohub,2013-02-16 00:57:00,
2013-02-15 20:00:00,30.0,8.6,30.16,NW,315,2.0,6.0,40,0.00,,,0.01,meteohub,2013-02-16 01:00:00,
2013-02-15 20:01:00,29.8,9.0,30.16,WSW,248,4.0,6.0,41,0.00,,,0.01,meteohub,2013-02-16 01:01:00,
2013-02-15 20:02:00,29.8,9.0,30.16,WSW,248,4.0,6.0,41,0.00,,,0.01,meteohub,2013-02-16 01:02:00,
2013-02-15 20:05:00,29.8,9.0,30.16,WSW,248,2.0,6.0,41,0.00,,,0.01,meteohub,2013-02-16 01:05:00,
2013-02-15 20:06:00,29.8,9.0,30.16,WSW,248,2.0,6.0,41,0.00,,,0.01,meteohub,2013-02-16 01:06:00,
2013-02-15 20:07:00,29.8,9.0,30.16,WSW,248,3.0,6.0,41,0.00,,,0.01,meteohub,2013-02-16 01:07:00,
2013-02-15 20:11:00,29.8,9.5,30.16,WSW,248,3.0,5.0,42,0.00,,,0.01,meteohub,2013-02-16 01:11:00,
2013-02-15 20:12:00,29.8,9.0,30.16,NW,315,2.0,5.0,41,0.00,,,0.01,meteohub,2013-02-16 01:12:00,
2013-02-15 20:13:00,29.8,9.5,30.16,West,270,2.0,5.0,42,0.00,,,0.01,meteohub,2013-02-16 01:13:00,
2013-02-15 20:16:00,29.8,9.5,30.16,West,270,1.0,4.0,42,0.00,,,0.01,meteohub,2013-02-16 01:16:00,
2013-02-15 20:17:00,29.8,9.5,30.16,West,270,1.0,4.0,42,0.00,,,0.01,meteohub,2013-02-16 01:17:00,
2013-02-15 20:18:00,29.8,9.5,30.16,West,270,1.0,4.0,42,0.00,,,0.01,meteohub,2013-02-16 01:18:00,
2013-02-15 20:19:00,29.8,9.5,30.16,West,270,1.0,4.0,42,0.00,,,0.01,meteohub,2013-02-16 01:19:00,
2013-02-15 20:23:00,29.8,9.5,30.16,West,270,1.0,3.0,42,0.00,,,0.01,meteohub,2013-02-16 01:23:00,
2013-02-15 20:25:00,30.0,9.7,30.16,NE,45,2.0,3.0,42,0.00,,,0.01,meteohub,2013-02-16 01:25:00,
2013-02-15 20:28:00,30.0,9.7,30.16,NW,315,1.0,3.0,42,0.00,,,0.01,meteohub,2013-02-16 01:28:00,
2013-02-15 20:30:00,30.0,9.7,30.16,West,270,3.0,3.0,42,0.00,,,0.01,meteohub,2013-02-16 01:30:00,
2013-02-15 20:31:00,30.0,9.7,30.16,West,270,3.0,3.0,42,0.00,,,0.01,meteohub,2013-02-16 01:31:00,
2013-02-15 20:33:00,29.8,10.0,30.16,NW,315,3.0,3.0,43,0.00,,,0.01,meteohub,2013-02-16 01:33:00,
2013-02-15 20:34:00,29.8,10.0,30.16,WSW,248,2.0,3.0,43,0.00,,,0.01,meteohub,2013-02-16 01:34:00,
2013-02-15 20:36:00,29.8,10.0,30.16,NW,315,4.0,4.0,43,0.00,,,0.01,meteohub,2013-02-16 01:36:00,
2013-02-15 20:38:00,29.8,10.0,30.16,WSW,248,2.0,4.0,43,0.00,,,0.01,meteohub,2013-02-16 01:38:00,
2013-02-15 20:40:00,29.8,10.0,30.16,WSW,248,1.0,4.0,43,0.00,,,0.01,meteohub,2013-02-16 01:40:00,
2013-02-15 20:41:00,29.8,10.0,30.16,WSW,248,0.0,4.0,43,0.00,,,0.01,meteohub,2013-02-16 01:41:00,
2013-02-15 20:42:00,29.8,10.0,30.16,WSW,248,0.0,4.0,43,0.00,,,0.01,meteohub,2013-02-16 01:42:00,
2013-02-15 20:44:00,29.7,9.9,30.16,WSW,248,0.0,4.0,43,0.00,,,0.01,meteohub,2013-02-16 01:44:00,
2013-02-15 20:47:00,29.7,9.9,30.16,WSW,248,2.0,4.0,43,0.00,,,0.01,meteohub,2013-02-16 01:47:00,
2013-02-15 20:50:00,29.7,9.9,30.16,South,180,1.0,4.0,43,0.00,,,0.01,meteohub,2013-02-16 01:50:00,
2013-02-15 20:52:00,29.7,9.9,30.16,West,270,1.0,4.0,43,0.00,,,0.01,meteohub,2013-02-16 01:52:00,
2013-02-15 20:53:00,29.7,9.9,30.16,NW,315,2.0,4.0,43,0.00,,,0.01,meteohub,2013-02-16 01:53:00,
2013-02-15 20:55:00,29.7,10.4,30.16,West,270,1.0,4.0,44,0.00,,,0.01,meteohub,2013-02-16 01:55:00,
2013-02-15 20:57:00,29.7,10.4,30.16,NW,315,0.0,4.0,44,0.00,,,0.01,meteohub,2013-02-16 01:57:00,
2013-02-15 20:58:00,29.7,10.4,30.16,WSW,248,2.0,4.0,44,0.00,,,0.01,meteohub,2013-02-16 01:58:00,
2013-02-15 20:59:00,29.7,10.4,30.16,WSW,248,1.0,4.0,44,0.00,,,0.01,meteohub,2013-02-16 01:59:00,
2013-02-15 21:01:00,29.7,10.4,30.16,WSW,248,1.0,2.0,44,0.00,,,0.01,meteohub,2013-02-16 02:01:00,
2013-02-15 21:03:00,29.7,10.4,30.16,WSW,248,1.0,2.0,44,0.00,,,0.01,meteohub,2013-02-16 02:03:00,
2013-02-15 21:04:00,29.7,10.4,30.16,WSW,248,1.0,2.0,44,0.00,,,0.01,meteohub,2013-02-16 02:04:00,
2013-02-15 21:05:00,29.7,10.4,30.16,WSW,248,1.0,2.0,44,0.00,,,0.01,meteohub,2013-02-16 02:05:00,
2013-02-15 21:06:00,29.7,10.4,30.16,WSW,248,1.0,2.0,44,0.00,,,0.01,meteohub,2013-02-16 02:06:00,
2013-02-15 21:09:00,29.8,10.6,30.16,West,270,0.0,2.0,44,0.00,,,0.01,meteohub,2013-02-16 02:09:00,
2013-02-15 21:10:00,29.8,10.6,30.16,NW,315,0.0,2.0,44,0.00,,,0.01,meteohub,2013-02-16 02:10:00,
2013-02-15 21:11:00,29.8,10.6,30.16,WSW,248,0.0,2.0,44,0.00,,,0.01,meteohub,2013-02-16 02:11:00,
2013-02-15 21:14:00,29.8,10.6,30.16,NW,315,1.0,2.0,44,0.00,,,0.01,meteohub,2013-02-16 02:14:00,
2013-02-15 21:16:00,29.8,10.6,30.16,West,270,1.0,1.0,44,0.00,,,0.01,meteohub,2013-02-16 02:16:00,
2013-02-15 21:20:00,29.8,10.6,30.16,NW,315,4.0,4.0,44,0.00,,,0.01,meteohub,2013-02-16 02:20:00,
2013-02-15 21:22:00,29.8,10.6,30.16,West,270,2.0,4.0,44,0.00,,,0.01,meteohub,2013-02-16 02:22:00,
2013-02-15 21:23:00,29.7,10.4,30.16,WSW,248,2.0,4.0,44,0.00,,,0.01,meteohub,2013-02-16 02:23:00,
2013-02-15 21:25:00,29.7,10.4,30.16,West,270,1.0,4.0,44,0.00,,,0.01,meteohub,2013-02-16 02:25:00,
2013-02-15 21:26:00,29.7,10.4,30.16,West,270,1.0,4.0,44,0.00,,,0.01,meteohub,2013-02-16 02:26:00,
2013-02-15 21:27:00,29.7,10.4,30.16,NW,315,2.0,4.0,44,0.00,,,0.01,meteohub,2013-02-16 02:27:00,
2013-02-15 21:28:00,29.7,10.9,30.16,West,270,4.0,4.0,45,0.00,,,0.01,meteohub,2013-02-16 02:28:00,
2013-02-15 21:30:00,29.7,10.9,30.16,NW,315,3.0,4.0,45,0.00,,,0.01,meteohub,2013-02-16 02:30:00,
2013-02-15 21:31:00,29.7,10.9,30.16,West,270,2.0,4.0,45,0.00,,,0.01,meteohub,2013-02-16 02:31:00,
2013-02-15 21:33:00,29.7,10.4,30.16,West,270,4.0,4.0,44,0.00,,,0.01,meteohub,2013-02-16 02:33:00,
2013-02-15 21:36:00,29.5,10.2,30.17,North,0,4.0,4.0,44,0.00,,,0.01,meteohub,2013-02-16 02:36:00,
2013-02-15 21:37:00,29.5,10.2,30.16,West,270,2.0,4.0,44,0.00,,,0.01,meteohub,2013-02-16 02:37:00,
2013-02-15 21:38:00,29.5,10.2,30.16,North,0,4.0,4.0,44,0.00,,,0.01,meteohub,2013-02-16 02:38:00,
2013-02-15 21:40:00,29.5,10.2,30.16,NW,315,4.0,4.0,44,0.00,,,0.01,meteohub,2013-02-16 02:40:00,
2013-02-15 21:42:00,29.3,10.0,30.16,NW,315,4.0,4.0,44,0.00,,,0.01,meteohub,2013-02-16 02:42:00,
2013-02-15 21:44:00,29.3,10.6,30.16,WSW,248,2.0,4.0,45,0.00,,,0.01,meteohub,2013-02-16 02:44:00,
2013-02-15 21:45:00,29.3,10.0,30.16,NW,315,4.0,4.0,44,0.00,,,0.01,meteohub,2013-02-16 02:45:00,
2013-02-15 21:49:00,29.1,9.9,30.16,NW,315,2.0,4.0,44,0.00,,,0.01,meteohub,2013-02-16 02:49:00,
2013-02-15 21:50:00,29.1,9.9,30.16,NW,315,2.0,4.0,44,0.00,,,0.01,meteohub,2013-02-16 02:50:00,
2013-02-15 21:52:00,29.1,10.4,30.16,NW,315,2.0,7.0,45,0.00,,,0.01,meteohub,2013-02-16 02:52:00,
2013-02-15 21:54:00,29.1,10.4,30.16,NW,315,3.0,7.0,45,0.00,,,0.01,meteohub,2013-02-16 02:54:00,
2013-02-15 21:55:00,29.1,10.4,30.16,NW,315,2.0,7.0,45,0.00,,,0.01,meteohub,2013-02-16 02:55:00,
2013-02-15 21:56:00,28.9,10.2,30.16,NE,45,5.0,7.0,45,0.00,,,0.01,meteohub,2013-02-16 02:56:00,
2013-02-15 21:58:00,28.9,10.2,30.16,NE,45,6.0,7.0,45,0.00,,,0.01,meteohub,2013-02-16 02:58:00,
2013-02-15 22:00:00,28.9,10.2,30.16,West,270,2.0,7.0,45,0.00,,,0.01,meteohub,2013-02-16 03:00:00,
2013-02-15 22:01:00,28.9,10.2,30.16,West,270,2.0,7.0,45,0.00,,,0.01,meteohub,2013-02-16 03:01:00,
2013-02-15 22:04:00,28.8,10.0,30.16,NE,45,3.0,7.0,45,0.00,,,0.01,meteohub,2013-02-16 03:04:00,
2013-02-15 22:06:00,28.8,10.0,30.16,NW,315,4.0,7.0,45,0.00,,,0.01,meteohub,2013-02-16 03:06:00,
2013-02-15 22:07:00,28.8,10.0,30.16,NE,45,5.0,7.0,45,0.00,,,0.01,meteohub,2013-02-16 03:07:00,
2013-02-15 22:09:00,28.6,9.9,30.16,North,0,5.0,7.0,45,0.00,,,0.01,meteohub,2013-02-16 03:09:00,
2013-02-15 22:10:00,28.6,9.9,30.16,North,0,8.0,8.0,45,0.00,,,0.01,meteohub,2013-02-16 03:10:00,
2013-02-15 22:12:00,28.4,9.7,30.16,NW,315,9.0,9.0,45,0.00,,,0.01,meteohub,2013-02-16 03:12:00,
2013-02-15 22:13:00,28.0,9.5,30.16,North,0,8.0,8.0,45,0.00,,,0.01,meteohub,2013-02-16 03:13:00,
2013-02-15 22:15:00,28.0,9.5,30.17,East,90,8.0,11.0,45,0.00,,,0.01,meteohub,2013-02-16 03:15:00,
2013-02-15 22:17:00,27.9,9.7,30.17,North,0,8.0,11.0,46,0.00,,,0.01,meteohub,2013-02-16 03:17:00,
2013-02-15 22:18:00,27.7,9.1,30.17,NW,315,8.0,11.0,45,0.00,,,0.01,meteohub,2013-02-16 03:18:00,
2013-02-15 22:19:00,27.7,9.1,30.17,NW,315,8.0,11.0,45,0.00,,,0.01,meteohub,2013-02-16 03:19:00,
2013-02-15 22:21:00,27.5,9.0,30.17,NW,315,7.0,11.0,45,0.00,,,0.01,meteohub,2013-02-16 03:21:00,
2013-02-15 22:22:00,27.5,9.0,30.17,North,0,6.0,11.0,45,0.00,,,0.01,meteohub,2013-02-16 03:22:00,
2013-02-15 22:23:00,27.5,9.5,30.17,North,0,7.0,11.0,46,0.00,,,0.01,meteohub,2013-02-16 03:23:00,
2013-02-15 22:24:00,27.3,9.3,30.16,NW,315,4.0,11.0,46,0.00,,,0.01,meteohub,2013-02-16 03:24:00,
2013-02-15 22:26:00,27.3,9.3,30.17,NW,315,4.0,11.0,46,0.00,,,0.01,meteohub,2013-02-16 03:26:00,
2013-02-15 22:27:00,27.3,9.3,30.16,NW,315,4.0,11.0,46,0.00,,,0.01,meteohub,2013-02-16 03:27:00,
2013-02-15 22:28:00,27.3,9.3,30.17,West,270,3.0,11.0,46,0.00,,,0.01,meteohub,2013-02-16 03:28:00,
2013-02-15 22:29:00,27.3,9.3,30.17,West,270,3.0,11.0,46,0.00,,,0.01,meteohub,2013-02-16 03:29:00,
2013-02-15 22:32:00,27.3,9.3,30.16,North,0,2.0,9.0,46,0.00,,,0.01,meteohub,2013-02-16 03:32:00,
2013-02-15 22:33:00,27.3,9.3,30.16,North,0,2.0,9.0,46,0.00,,,0.01,meteohub,2013-02-16 03:33:00,
2013-02-15 22:35:00,27.3,9.7,30.16,West,270,6.0,9.0,47,0.00,,,0.01,meteohub,2013-02-16 03:35:00,
2013-02-15 22:38:00,27.3,9.7,30.16,NW,315,3.0,9.0,47,0.00,,,0.01,meteohub,2013-02-16 03:38:00,
2013-02-15 22:39:00,27.3,9.7,30.16,North,0,3.0,9.0,47,0.00,,,0.01,meteohub,2013-02-16 03:39:00,
2013-02-15 22:42:00,27.3,9.7,30.16,North,0,5.0,8.0,47,0.00,,,0.01,meteohub,2013-02-16 03:42:00,
2013-02-15 22:43:00,27.3,9.7,30.16,West,270,4.0,8.0,47,0.00,,,0.01,meteohub,2013-02-16 03:43:00,
2013-02-15 22:44:00,27.3,9.7,30.16,East,90,4.0,8.0,47,0.00,,,0.01,meteohub,2013-02-16 03:44:00,
2013-02-15 22:46:00,27.3,9.7,30.16,NW,315,3.0,6.0,47,0.00,,,0.01,meteohub,2013-02-16 03:46:00,
2013-02-15 22:47:00,27.1,9.5,30.16,NW,315,5.0,6.0,47,0.00,,,0.01,meteohub,2013-02-16 03:47:00,
2013-02-15 22:48:00,27.1,9.5,30.16,North,0,4.0,6.0,47,0.00,,,0.01,meteohub,2013-02-16 03:48:00,
2013-02-15 22:49:00,27.1,9.5,30.16,NW,315,2.0,6.0,47,0.00,,,0.01,meteohub,2013-02-16 03:49:00,
2013-02-15 22:51:00,27.3,10.2,30.16,NW,315,5.0,6.0,48,0.00,,,0.01,meteohub,2013-02-16 03:51:00,
2013-02-15 22:53:00,27.1,9.5,30.16,NW,315,6.0,6.0,47,0.00,,,0.01,meteohub,2013-02-16 03:53:00,
2013-02-15 22:54:00,27.1,10.0,30.16,North,0,4.0,6.0,48,0.00,,,0.01,meteohub,2013-02-16 03:54:00,
2013-02-15 22:55:00,27.1,10.0,30.16,North,0,4.0,6.0,48,0.00,,,0.01,meteohub,2013-02-16 03:55:00,
2013-02-15 22:56:00,27.1,10.0,30.16,West,270,4.0,6.0,48,0.00,,,0.01,meteohub,2013-02-16 03:56:00,
2013-02-15 22:59:00,27.1,10.0,30.16,NW,315,7.0,7.0,48,0.00,,,0.01,meteohub,2013-02-16 03:59:00,
2013-02-15 23:00:00,27.0,9.9,30.16,North,0,4.0,8.0,48,0.00,,,0.01,meteohub,2013-02-16 04:00:00,
2013-02-15 23:01:00,27.0,9.9,30.16,North,0,4.0,8.0,48,0.00,,,0.01,meteohub,2013-02-16 04:01:00,
2013-02-15 23:04:00,27.0,9.9,30.16,North,0,3.0,8.0,48,0.00,,,0.01,meteohub,2013-02-16 04:04:00,
2013-02-15 23:05:00,27.0,9.9,30.16,North,0,3.0,8.0,48,0.00,,,0.01,meteohub,2013-02-16 04:05:00,
2013-02-15 23:07:00,27.0,9.9,30.16,West,270,3.0,8.0,48,0.00,,,0.01,meteohub,2013-02-16 04:07:00,
2013-02-15 23:09:00,27.0,9.9,30.16,North,0,4.0,8.0,48,0.00,,,0.01,meteohub,2013-02-16 04:09:00,
2013-02-15 23:10:00,26.8,9.7,30.16,North,0,4.0,8.0,48,0.00,,,0.01,meteohub,2013-02-16 04:10:00,
2013-02-15 23:11:00,26.8,9.7,30.16,North,0,2.0,8.0,48,0.00,,,0.01,meteohub,2013-02-16 04:11:00,
2013-02-15 23:13:00,26.8,9.7,30.16,North,0,3.0,8.0,48,0.00,,,0.01,meteohub,2013-02-16 04:13:00,
2013-02-15 23:14:00,27.0,9.9,30.16,West,270,4.0,8.0,48,0.00,,,0.01,meteohub,2013-02-16 04:14:00,
2013-02-15 23:16:00,27.0,9.9,30.16,West,270,4.0,8.0,48,0.00,,,0.01,meteohub,2013-02-16 04:16:00,
2013-02-15 23:20:00,27.0,9.9,30.16,NW,315,4.0,8.0,48,0.00,,,0.01,meteohub,2013-02-16 04:20:00,
2013-02-15 23:22:00,26.8,9.7,30.16,West,270,2.0,11.0,48,0.00,,,0.01,meteohub,2013-02-16 04:22:00,
2013-02-15 23:25:00,26.8,10.2,30.16,NW,315,11.0,11.0,49,0.00,,,0.01,meteohub,2013-02-16 04:25:00,
2013-02-15 23:26:00,26.8,10.2,30.16,North,0,3.0,11.0,49,0.00,,,0.01,meteohub,2013-02-16 04:26:00,
2013-02-15 23:27:00,26.8,10.2,30.16,NW,315,2.0,11.0,49,0.00,,,0.01,meteohub,2013-02-16 04:27:00,
2013-02-15 23:28:00,26.8,10.2,30.16,NW,315,2.0,11.0,49,0.00,,,0.01,meteohub,2013-02-16 04:28:00,
2013-02-15 23:30:00,26.8,10.2,30.16,West,270,11.0,11.0,49,0.00,,,0.01,meteohub,2013-02-16 04:30:00,
2013-02-15 23:31:00,26.8,10.2,30.16,West,270,11.0,11.0,49,0.00,,,0.01,meteohub,2013-02-16 04:31:00,
2013-02-15 23:32:00,26.8,10.2,30.16,NW,315,6.0,11.0,49,0.00,,,0.01,meteohub,2013-02-16 04:32:00,
2013-02-15 23:34:00,26.8,10.2,30.16,NW,315,2.0,11.0,49,0.00,,,0.01,meteohub,2013-02-16 04:34:00,
2013-02-15 23:35:00,26.8,10.2,30.16,North,0,2.0,11.0,49,0.00,,,0.01,meteohub,2013-02-16 04:35:00,
2013-02-15 23:37:00,26.8,10.2,30.17,NW,315,2.0,11.0,49,0.00,,,0.01,meteohub,2013-02-16 04:37:00,
2013-02-15 23:38:00,26.8,10.2,30.17,NW,315,2.0,11.0,49,0.00,,,0.01,meteohub,2013-02-16 04:38:00,
2013-02-15 23:40:00,26.8,10.2,30.16,North,0,2.0,11.0,49,0.00,,,0.01,meteohub,2013-02-16 04:40:00,
2013-02-15 23:41:00,26.8,10.2,30.17,NW,315,8.0,11.0,49,0.00,,,0.01,meteohub,2013-02-16 04:41:00,
2013-02-15 23:43:00,26.8,10.2,30.17,North,0,2.0,11.0,49,0.00,,,0.01,meteohub,2013-02-16 04:43:00,
2013-02-15 23:45:00,26.6,10.0,30.17,North,0,8.0,11.0,49,0.00,,,0.01,meteohub,2013-02-16 04:45:00,
2013-02-15 23:46:00,26.6,10.0,30.17,North,0,8.0,11.0,49,0.00,,,0.01,meteohub,2013-02-16 04:46:00,
2013-02-15 23:48:00,26.4,9.9,30.17,NW,315,7.0,11.0,49,0.00,,,0.01,meteohub,2013-02-16 04:48:00,
2013-02-15 23:50:00,26.2,9.7,30.17,NW,315,3.0,8.0,49,0.00,,,0.01,meteohub,2013-02-16 04:50:00,
2013-02-15 23:52:00,26.2,9.7,30.17,WSW,248,4.0,8.0,49,0.00,,,0.01,meteohub,2013-02-16 04:52:00,
2013-02-15 23:53:00,26.2,9.7,30.17,NW,315,4.0,8.0,49,0.00,,,0.01,meteohub,2013-02-16 04:53:00,
2013-02-15 23:55:00,26.2,9.7,30.17,NW,315,5.0,8.0,49,0.00,,,0.01,meteohub,2013-02-16 04:55:00,
2013-02-15 23:58:00,26.2,9.7,30.17,North,0,3.0,8.0,49,0.00,,,0.01,meteohub,2013-02-16 04:58:00,
2013-02-15 23:59:00,26.2,9.7,30.17,North,0,2.0,8.0,49,0.00,,,0.01,meteohub,2013-02-16 04:59:00,